                ,  0.301,  0.397,  0.494,  0.590,  0.687,  0.784,  0.880,  0.977,  1.073,  1.170,  1.267,  1.363,  1.460,  1.556,  1.653,  1.749,  1.846,  1.943,  2.039,  2.136,  2.232,  2.329,  2.426,  2.522,  2.619,  2.715,  2.812,  2.909,  3.005,  3.102,  3.198,  3.295,  3.392,  3.488,  3.585,  3.681,  3.778,  3.875,  3.971,  4.068,  4.164,  4.261,  4.357,  4.454,  4.551,  4.647,  4.744,  4.840,  4.937,  5.034,  5.130,  5.227,  5.323,  5.420,  5.517,  5.613,  5.710,  5.806,  5.903,  6.000,  6.096,  6.193,  6.289,  6.386,  6.483,  6.579,  6.676,  6.772,  6.869,  6.965,  7.062,  7.159,  7.255,  7.352,  7.448,  7.545,  7.642,  7.738,  7.835,  7.931
2013/05/08 00:00,  999.0,  999.0,   -0.7,   -0.3,   -0.3,    0.1,    1.2,    0.8,    0.5,    0.8,    1.9,    2.0,   -0.2,    1.8,    2.5,  999.0,  999.0,  999.0,  999.0,  999.0,  999.0,  999.0,  999.0,  999.0,  999.0,    0.4,   -0.0,    0.2,    0.1,    0.3,    0.0,   -0.0,    0.5,    0.4,   -0.1,    0.4,   -0.1,  999.0,  999.0,  999.0,   -0.4,   -0.1,  999.0,    0.2,   -0.1,   -0.4,   -0.7,   -0.4,    0.2,    0.0,   -0.1,    0.3,   -0.0,    0.4,    0.1,   -0.1,   -0.1,   -0.1,   -0.0,    0.7,   -0.4,  999.0,   -0.5,    0.1,   -0.2,    1.0,  999.0,    0.7,    0.6,  999.0,    0.0,  999.0,  999.0,  999.0,   -0.1,  999.0,  999.0,  999.0,  999.0,  999.0
2013/05/08 00:10,  999.0,   -0.1,   -0.3,   -0.4,   -0.6,  999.0,  999.0,    0.2,    0.8,    1.1,    0.5,    0.6,    1.2,    0.6,    1.2,    1.0,  999.0,    0.5,    0.7,  999.0,    0.6,    1.8,    2.2,    1.1,    0.4,    0.4,    0.1,   -0.0,    0.6,    0.1,   -0.1,   -0.0,   -0.0,    0.0,   -0.2,    0.3,    0.1,    0.3,   -0.3,    0.1,   -0.3,   -0.1,   -0.1,    0.1,    0.2,   -0.1,    0.1,    0.3,    0.1,    0.0,   -0.2,    0.1,   -0.3,   -0.0,    0.1,    0.0,    0.3,    0.3,   -0.2,    0.2,    0.1,    0.2,    0.3,    0.3,    0.1,   -0.2,   -0.2,   -0.5,  999.0,    0.4,  999.0,  999.0,  999.0,   -0.1,   -0.2,  999.0,  999.0,  999.0,  999.0,  999.0
2013/05/08 00:20,  999.0,   -0.1,    0.2,   -1.1,    0.4,    1.2,    1.5,    2.6,    0.6,    0.5,   -0.2,    0.4,    0.7,  999.0,  999.0,  999.0,  999.0,    0.3,   -0.3,  999.0,  999.0,  999.0,    0.4,    0.1,    0.4,   -0.0,    0.1,   -0.2,    0.0,   -0.1,   -0.0,   -0.1,   -0.1,    0.1,   -0.1,    0.2,    0.4,    0.1,    0.1,   -0.3,   -0.4,   -0.3,    0.1,    0.1,    0.1,    0.4,    0.0,   -0.1,   -0.2,   -0.1,    0.2,    0.3,   -0.1,   -0.7,    0.3,    0.1,    0.1,  999.0,    0.1,   -0.1,    0.0,   -0.2,   -0.0,   -0.3,   -0.1,    0.1,   -0.2,   -0.0,    0.4,    0.1,   -0.0,    0.3,  999.0,    0.0,  999.0,  999.0,  999.0,  999.0,  999.0,  999.0
2013/05/08 00:30,  999.0,    0.1,    0.2,    1.0,    2.6,    1.7,    2.4,    4.2,  999.0,    6.3,    9.6,   11.0,   10.7,   12.0,   13.0,   12.9,   12.7,   12.2,  999.0,  999.0,  999.0,  999.0,  999.0,    1.0,    0.7,    0.2,    0.6,    0.3,    0.0,   -0.0,   -0.0,   -0.2,   -0.2,   -0.1,   -0.0,    0.8,    0.0,    0.1,  999.0,   -0.1,   -0.1,   -0.5,    0.1,   -0.1,    0.1,  999.0,    0.2,    0.3,    0.0,   -0.2,    0.0,    0.1,    0.3,    0.2,    0.2,   -0.3,    0.2,    0.3,  999.0,  999.0,   -0.1,   -0.1,   -0.4,    0.1,   -0.4,  999.0,   -0.4,    0.1,  999.0,  999.0,  999.0,    0.4,  999.0,  999.0,  999.0,  999.0,  999.0,  999.0,  999.0,  999.0
2013/05/08 00:40,  999.0,   -0.1,  999.0,  999.0,    4.0,    4.8,    6.7,    6.3,    7.9,   10.2,   11.3,   12.9,   11.9,   12.7,   13.4,   12.6,   12.0,   11.3,    9.9,  999.0,  999.0,  999.0,  999.0,    0.4,    0.4,    0.0,    0.1,    0.3,    0.4,   -0.3,    0.1,    0.3,    0.0,  999.0,    0.0,   -0.2,   -0.5,    0.0,   -0.4,   -0.1,   -0.3,   -0.4,   -0.2,   -0.0,    0.2,  999.0,    0.0,  999.0,   -0.0,  999.0,   -0.1,    0.1,  999.0,    0.3,    0.1,  999.0,   -0.4,   -0.1,   -0.0,    0.2,    0.2,    0.1,  999.0,   -0.5,   -0.4,  999.0,    0.4,  999.0,  999.0,  999.0,  999.0,  999.0,    0.1,  999.0,  999.0,  999.0,  999.0,  999.0,  999.0,  999.0
2013/05/08 00:50,  999.0,   -0.1,    0.8,    3.2,    3.1,    5.3,    6.7,    6.3,    6.6,    8.1,   10.0,   12.2,   11.7,   11.3,   12.9,   12.4,   11.5,   10.9,  999.0,  999.0,  999.0,  999.0,  999.0,    0.6,    0.1,    0.3,    0.1,    0.3,    0.1,    0.0,   -0.1,    0.0,    0.3,   -0.1,    0.0,  999.0,   -0.3,  999.0,   -0.0,   -0.1,   -0.4,    0.2,    1.1,    0.4,   -0.1,    0.1,    0.2,   -0.1,   -0.0,   -0.4,   -0.1,   -0.1,    0.3,    0.0,    0.1,   -0.1,  999.0,   -0.2,   -0.2,  999.0,  999.0,  999.0,    0.1,  999.0,   -0.6,  999.0,  999.0,  999.0,   -0.2,  999.0,  999.0,  999.0,  999.0,  999.0,  999.0,  999.0,  999.0,  999.0,  999.0,  999.0
2013/05/08 01:00,  999.0,    0.1,   -0.2,  999.0,    3.4,    2.2,  999.0,    4.0,    1.5,    3.4,    3.8,    6.2,  999.0,   13.9,    4.7,    4.0,    4.2,    3.4,  999.0,    5.4,  999.0,    0.4,    0.6,    0.4,    0.2,    0.3,    0.1,    0.1,    0.0,   -0.0,   -0.1,    0.1,    0.2,   -0.2,   -0.2,   -0.1,    0.3,    0.3,    0.2,   -0.3,   -0.3,   -0.0,  999.0,    0.4,    0.1,   -0.2,   -0.3,   -0.4,    0.3,  999.0,    0.2,   -0.1,   -0.3,   -0.0,   -0.0,    0.1,   -0.3,  999.0,    0.7,  999.0,    0.3,   -0.0,  999.0,    0.2,    0.1,  999.0,   -0.1,  999.0,  999.0,  999.0,    0.4,   -0.0,  999.0,  999.0,  999.0,  999.0,  999.0,  999.0,  999.0,  999.0
2013/05/08 01:10,  999.0,    0.0,    2.0,    3.4,  999.0,    1.9,    1.9,    0.8,   -0.3,    1.1,    5.8,    7.8,    5.8,    9.3,    8.4,    8.1,    7.4,    5.9,    6.5,    4.2,  999.0,    4.4,    0.3,    0.0,   -0.1,    0.2,    0.3,    0.2,    0.1,   -0.1,    0.1,    0.2,    0.1,    0.0,    0.1,    0.2,   -0.3,   -0.2,    0.0,   -0.3,   -0.2,  999.0,    0.2,    0.0,   -0.2,   -0.3,   -0.2,    0.1,   -0.1,    0.2,   -0.1,   -0.0,    0.2,  999.0,    0.0,   -0.2,    0.0,   -0.1,   -0.2,    0.1,  999.0,   -0.1,    0.1,   -0.3,   -0.3,  999.0,  999.0,  999.0,  999.0,  999.0,    0.1,   -0.1,  999.0,  999.0,    0.5,  999.0,  999.0,  999.0,  999.0,  999.0
2013/05/08 01:20,  999.0,    1.7,    2.7,    4.7,    5.3,    4.5,    5.3,    6.2,    6.2,    7.7,    8.8,   10.9,   11.3,   13.7,   13.4,   13.9,   13.1,   11.7,   11.8,   10.7,   10.7,  999.0,  999.0,   -0.2,    0.3,    0.2,    0.2,    0.4,    0.2,   -0.1,   -0.0,    0.0,    0.3,    0.1,   -0.0,   -0.3,    0.1,    0.2,   -0.2,   -0.3,   -0.2,   -0.3,   -0.1,   -0.1,   -0.0,    0.1,   -0.2,    0.1,   -0.2,    0.0,    0.2,    0.4,    0.2,   -0.1,    0.2,    0.0,   -0.0,    0.2,    0.4,   -0.1,  999.0,   -0.2,   -0.0,    0.1,   -0.1,  999.0,  999.0,  999.0,  999.0,  999.0,  999.0,  999.0,  999.0,  999.0,  999.0,  999.0,  999.0,  999.0,  999.0,  999.0
2013/05/08 01:30,  999.0,    2.2,    3.5,    3.0,    5.0,    8.8,    7.4,    8.8,    9.2,   10.4,   12.6,   13.8,   14.7,   14.9,   14.5,   13.8,   10.1,    9.6,   11.1,  999.0,  999.0,  999.0,   -0.1,   -0.6,   -0.3,   -0.1,   -0.1,   -0.1,   -0.0,    0.1,   -0.1,   -0.1,   -0.7,   -0.3,    0.3,    0.3,   -0.7,    0.0,   -0.0,   -0.2,   -0.4,  999.0,    0.2,    0.0,    0.1,    0.1,   -0.0,    0.0,    0.2,  999.0,   -0.3,    0.1,   -0.1,   -0.0,    0.0,    0.0,   -0.0,    0.1,   -0.0,    0.2,    0.2,   -0.0,   -0.1,   -0.3,   -0.0,  999.0,  999.0,  999.0,    0.1,  999.0,  999.0,  999.0,    0.2,  999.0,  999.0,  999.0,  999.0,  999.0,  999.0,  999.0
2013/05/08 01:40,  999.0,   -0.4,    1.2,  999.0,    3.6,    7.4,    7.3,    9.0,    9.9,   11.8,   13.0,   13.2,   13.6,   14.8,   15.3,   14.5,   13.8,   14.1,   12.2,  999.0,   13.5,  999.0,   -0.0,   -0.2,   -0.2,   -0.1,   -0.2,    0.0,   -0.1,   -0.1,    0.2,   -0.1,    0.1,    0.0,    0.1,   -0.1,   -0.2,    0.0,  999.0,   -0.1,   -0.1,   -0.3,   -0.1,    0.3,    0.2,   -0.2,    0.2,   -0.4,   -0.2,    0.3,    0.1,   -0.1,   -0.1,   -0.1,   -0.0,   -0.0,   -0.0,  999.0,    0.0,    0.1,    0.2,    0.3,  999.0,    0.0,   -0.0,    0.0,  999.0,    0.1,    0.4,  999.0,    0.1,  999.0,  999.0,  999.0,  999.0,  999.0,  999.0,  999.0,  999.0,  999.0
2013/05/08 01:50,  999.0,   -0.2,   -0.0,    0.9,    1.1,    2.7,    4.0,    4.9,    6.6,    8.5,   11.1,   13.1,   13.1,   13.8,   14.6,   12.6,   12.0,   10.6,  999.0,   13.4,    6.1,   -0.1,    0.0,    0.2,   -0.1,   -0.0,    0.1,   -0.1,    0.0,    0.0,    0.1,    0.0,    0.2,  999.0,   -0.1,   -0.1,  999.0,   -0.2,    0.1,    0.2,   -0.2,   -0.0,   -0.3,   -0.2,    0.0,    0.2,   -0.1,    0.0,    0.1,    0.4,    0.1,    0.1,   -0.1,    0.1,   -0.0,    0.2,    0.0,   -0.1,   -0.1,    0.2,    0.2,    0.1,   -0.0,   -0.3,   -0.3,   -0.1,    0.0,   -0.0,   -0.4,    0.2,    0.1,   -0.2,   -0.2,  999.0,  999.0,  999.0,  999.0,  999.0,  999.0,  999.0
2013/05/08 02:00,  999.0,    0.2,    0.6,    1.6,    2.3,  999.0,    2.1,  999.0,    8.4,   12.4,   13.6,   14.6,   15.0,   15.5,   15.3,   14.9,   14.6,   13.8,   12.4,   10.8,  999.0,  999.0,  999.0,    0.3,    0.2,    0.2,   -0.1,    0.1,    0.3,    0.1,    0.0,   -0.0,   -0.1,    0.3,   -0.2,    0.2,    0.1,  999.0,   -0.4,   -0.1,   -0.2,   -0.2,    0.0,    0.2,    0.2,   -0.1,   -0.2,    0.2,    0.1,   -0.3,    0.0,    0.1,   -0.2,    0.1,   -0.0,   -0.2,   -0.2,   -0.1,    0.2,    0.5,    0.4,    0.4,    0.1,   -0.1,   -0.2,    0.4,  999.0,   -0.5,  999.0,  999.0,  999.0,   -0.3,  999.0,  999.0,  999.0,  999.0,  999.0,  999.0,  999.0,  999.0
2013/05/08 02:10,  999.0,   -0.3,   -1.0,    0.7,    1.2,    2.4,    1.7,    2.6,    4.0,    4.9,    7.8,   12.8,   12.6,   13.7,   11.6,   11.9,   11.5,   11.4,  999.0,  999.0,  999.0,  999.0,  999.0,   -0.2,   -0.1,   -0.2,   -0.4,   -0.3,   -0.3,   -0.1,   -0.0,   -0.2,    0.2,   -0.2,   -0.2,    0.4,   -0.1,   -0.1,   -0.2,    0.2,    0.0,   -0.1,   -0.1,   -0.3,    0.0,   -0.1,   -0.2,   -0.1,    0.1,  999.0,    0.2,    0.3,    0.1,   -0.1,   -0.2,    0.0,   -0.0,   -0.1,    0.2,   -0.1,   -0.3,   -0.1,    0.1,    0.1,   -0.4,   -0.4,   -0.2,  999.0,  999.0,  999.0,  999.0,  999.0,  999.0,  999.0,    0.3,  999.0,  999.0,  999.0,  999.0,  999.0
2013/05/08 02:20,  999.0,  999.0,   -0.5,    0.3,    0.7,    0.4,    0.7,    3.8,    6.1,    7.9,    8.8,   11.7,   11.7,   13.1,   13.8,   11.6,   10.2,    8.2,   12.7,   11.1,  999.0,  999.0,  999.0,  999.0,    0.7,    0.2,    0.7,   -0.0,    0.1,    0.2,   -0.2,    0.2,    0.1,    0.4,   -0.0,    0.3,    0.2,    0.0,    0.2,   -0.0,   -0.4,   -0.1,    0.2,   -0.1,   -0.3,    0.1,   -0.1,   -0.3,    0.2,  999.0,   -0.0,  999.0,    0.0,    0.0,   -0.2,   -0.2,   -0.0,   -0.2,   -0.3,    0.5,   -0.1,   -0.3,   -0.0,   -0.0,   -0.2,  999.0,  999.0,  999.0,  999.0,  999.0,  999.0,  999.0,  999.0,  999.0,  999.0,  999.0,  999.0,  999.0,  999.0,  999.0
2013/05/08 02:30,  999.0,   -0.4,    0.1,    0.2,    1.9,    2.9,  999.0,    6.7,    8.5,    7.4,    9.9,   10.8,   12.5,   13.1,   13.9,   11.5,  999.0,    9.8,  999.0,   12.2,  999.0,  999.0,  999.0,  999.0,    1.6,    0.6,   -0.1,   -0.1,    0.6,    0.1,    0.5,    0.1,  999.0,   -0.2,   -0.3,   -0.2,  999.0,  999.0,   -0.2,   -0.0,   -0.2,    0.0,   -0.3,   -0.6,    0.0,   -0.0,   -0.0,    0.1,    0.3,  999.0,   -0.2,    0.2,    0.2,   -0.1,    0.0,   -0.1,   -0.0,  999.0,    0.1,    0.0,   -0.2,    0.2,  999.0,    0.4,    0.2,    0.1,   -0.0,  999.0,  999.0,  999.0,   -0.1,  999.0,  999.0,  999.0,  999.0,  999.0,  999.0,  999.0,  999.0,  999.0
2013/05/08 02:40,  999.0,    0.1,    0.8,    0.6,    1.7,    3.4,    4.6,  999.0,    6.4,   10.4,   11.4,   12.3,   14.1,   12.6,   11.5,   12.2,  999.0,  999.0,  999.0,   12.6,  999.0,  999.0,  999.0,  999.0,    0.4,    0.4,    0.2,    0.1,   -0.1,    0.3,   -0.1,    0.1,   -0.0,   -0.1,    0.2,    0.0,    0.0,    0.1,   -0.2,    0.1,   -0.4,   -0.2,   -0.1,    0.4,    0.2,   -0.2,    0.1,    0.1,    0.2,   -0.0,   -0.1,    0.1,    0.1,   -0.0,    0.2,   -0.0,   -0.1,   -0.1,    0.4,    0.4,   -0.4,    0.2,    0.2,    0.0,   -0.3,  999.0,  999.0,   -0.1,  999.0,    0.0,   -0.0,   -0.0,  999.0,  999.0,  999.0,  999.0,  999.0,  999.0,  999.0,  999.0
2013/05/08 02:50,  999.0,  999.0,   -0.2,    2.2,  999.0,    3.2,    6.4,    5.3,    8.0,   11.5,   14.1,   14.0,   13.7,   11.2,   12.7,   11.1,   11.5,   13.3,  999.0,   12.0,    2.7,    0.6,    0.2,    0.4,    0.1,    0.4,    0.2,    0.1,    0.2,    0.1,    0.1,   -0.1,    0.1,   -0.1,   -0.2,   -0.1,  999.0,    0.2,    0.3,    0.0,   -0.3,   -0.2,  999.0,   -0.1,   -0.2,    0.0,   -0.1,    0.0,    0.0,    0.2,    0.1,   -0.1,   -0.1,   -0.0,    0.1,    0.2,   -0.0,   -0.4,    0.0,   -0.1,   -0.1,   -0.2,   -0.2,   -0.2,   -0.3,    0.3,    0.3,  999.0,  999.0,  999.0,    0.1,  999.0,  999.0,  999.0,  999.0,  999.0,  999.0,  999.0,  999.0,  999.0
2013/05/08 03:00,  999.0,    0.4,    0.5,    3.4,  999.0,    3.0,    5.2,    7.9,    8.4,   10.6,   12.9,   13.0,   14.0,   14.3,   12.7,   12.7,   12.9,  999.0,    0.8,    0.6,    0.3,    0.3,    0.2,    0.0,    0.5,   -0.0,   -0.3,   -0.2,    0.4,    0.1,    0.3,   -0.2,    0.0,    0.2,   -0.0,   -0.2,    0.1,   -0.5,   -0.0,    0.0,   -0.1,    0.1,    0.2,    0.1,    0.1,   -0.1,   -0.0,   -0.0,   -0.1,   -0.1,    0.1,    0.1,    0.2,   -0.2,   -0.0,   -0.0,   -0.1,    0.3,    0.2,    0.4,   -0.1,   -0.0,    0.0,   -0.1,    0.2,    0.3,   -0.4,    0.3,    0.2,  999.0,    0.4,  999.0,    0.2,  999.0,  999.0,  999.0,  999.0,  999.0,  999.0,  999.0
2013/05/08 03:10,  999.0,    0.2,    0.9,    0.8,    1.2,    2.5,    1.6,    1.6,    0.7,    0.9,    1.4,    2.6,    1.2,    2.6,    0.3,   -0.4,   -0.3,    0.2,    0.4,    0.6,    0.2,    0.4,    0.4,    0.8,    0.5,   -0.0,    0.1,   -0.0,    0.4,   -0.1,   -0.0,    0.0,   -0.0,   -0.0,   -0.1,    0.1,   -0.1,   -0.2,   -0.1,   -0.1,   -0.2,    0.1,    0.1,    0.2,    0.1,   -0.0,    0.0,    0.0,   -0.1,    0.0,    0.1,    0.0,    0.0,    0.1,   -0.2,   -0.1,   -0.0,    0.1,    0.1,   -0.0,   -0.1,   -0.1,    0.0,   -0.2,   -0.1,   -0.2,   -0.1,   -0.2,  999.0,   -0.1,   -0.1,    0.2,   -0.1,  999.0,  999.0,  999.0,  999.0,  999.0,  999.0,  999.0
2013/05/08 03:20,  999.0,  999.0,  999.0,    3.9,  999.0,  999.0,    8.3,   10.0,   11.5,   12.9,   15.3,   16.2,   16.9,   16.1,   15.5,   14.4,   14.2,  999.0,  999.0,  999.0,  999.0,    0.2,    0.6,    0.5,    0.2,    0.2,    0.1,    0.1,   -0.0,    0.0,   -0.1,    0.0,    0.1,   -0.3,   -0.3,   -0.0,   -0.2,    0.4,    0.1,    0.1,   -0.1,   -0.0,    0.0,   -0.0,   -0.0,   -0.2,    0.0,   -0.0,    0.1,   -0.2,    0.2,    0.0,    0.1,   -0.2,   -0.1,   -0.0,    0.1,    0.1,   -0.0,   -0.2,   -0.2,   -0.1,    0.1,   -0.2,   -0.0,   -0.1,   -0.0,    0.0,   -0.3,    0.0,  999.0,  999.0,    0.3,  999.0,  999.0,  999.0,  999.0,  999.0,  999.0,  999.0
2013/05/08 03:30,  999.0,    0.3,    0.0,    3.5,  999.0,    7.7,    9.6,   10.0,   11.6,   13.6,   15.3,   16.6,   16.0,   16.3,   15.9,   14.8,   14.3,   13.8,  999.0,  999.0,  999.0,    0.4,    0.4,    0.3,    0.4,    0.4,    0.4,   -0.0,    0.2,    0.0,   -0.0,    0.1,   -0.2,    0.1,    0.3,   -0.3,    0.2,   -0.0,   -0.1,    0.2,   -0.2,   -0.1,   -0.1,    0.1,   -0.1,   -0.2,   -0.2,   -0.2,   -0.1,    0.1,   -0.0,    0.0,    0.0,   -0.2,   -0.0,   -0.1,    0.3,   -0.3,    0.1,    0.0,   -0.2,    0.2,   -0.1,   -0.1,    0.3,  999.0,    0.3,  999.0,  999.0,  999.0,   -0.0,    0.0,    0.3,  999.0,  999.0,  999.0,  999.0,  999.0,  999.0,  999.0
2013/05/08 03:40,  999.0,    0.1,    1.5,    2.4,    4.9,    8.1,    8.2,   13.9,   14.7,   13.4,   14.1,   13.7,   13.3,   12.3,   12.2,   10.3,   12.8,  999.0,  999.0,  999.0,  999.0,    0.6,    0.4,    0.4,    0.2,    0.1,    0.2,   -0.1,    0.1,   -0.0,   -0.1,    0.0,   -0.2,    0.1,   -0.1,   -0.0,  999.0,  999.0,    0.0,    0.4,   -0.1,   -0.1,   -0.4,   -0.1,   -0.0,    0.1,   -0.1,   -0.1,   -0.0,  999.0,   -0.1,   -0.0,    0.0,   -0.1,   -0.1,    0.1,   -0.1,   -0.2,    0.1,    0.3,    0.1,   -0.1,  999.0,   -0.1,   -0.1,  999.0,  999.0,   -0.1,   -0.3,   -0.2,   -0.1,  999.0,  999.0,  999.0,  999.0,  999.0,  999.0,  999.0,  999.0,  999.0
2013/05/08 03:50,  999.0,  999.0,    5.4,    5.9,    6.2,    6.3,    8.4,   10.5,   10.0,   11.5,   12.8,   12.0,   13.2,   13.3,   10.4,    6.3,  999.0,   12.7,  999.0,  999.0,  999.0,  999.0,  999.0,    0.1,   -0.0,    0.2,   -0.1,    0.3,    0.1,    0.1,   -0.0,   -0.0,   -0.1,  999.0,    0.3,    0.1,   -0.3,   -0.2,   -0.1,   -0.1,   -0.2,    0.1,    0.2,   -0.1,    0.2,    0.1,   -0.1,   -0.1,    0.2,    0.0,   -0.2,   -0.0,    0.0,   -0.3,   -0.3,   -0.2,   -0.0,   -0.2,    0.0,    0.0,    0.3,    0.5,   -0.1,   -0.5,   -0.3,   -0.1,    0.0,   -0.2,   -0.6,    0.1,   -0.6,  999.0,  999.0,  999.0,  999.0,  999.0,  999.0,  999.0,  999.0,  999.0
2013/05/08 04:00,  999.0,   -0.2,    0.9,    2.7,  999.0,    7.0,    6.7,    7.2,   10.1,   11.8,   14.0,   14.0,   14.2,   13.6,   11.1,  999.0,   12.2,   13.3,  999.0,  999.0,  999.0,    0.7,  999.0,    0.3,   -0.1,   -0.0,    0.1,   -0.2,   -0.0,    0.1,   -0.3,    0.1,   -0.1,   -0.1,   -0.4,  999.0,    0.1,   -0.2,    0.1,   -0.0,   -0.1,   -0.0,   -0.1,   -0.1,    0.2,   -0.1,    0.2,   -0.2,   -0.4,    0.1,   -0.0,    0.1,    0.1,    0.2,    0.1,   -0.0,   -0.4,   -0.3,    0.2,    0.1,    0.6,    0.3,    0.1,    0.2,    0.0,    0.1,    0.2,  999.0,    0.3,  999.0,  999.0,  999.0,  999.0,  999.0,  999.0,  999.0,  999.0,  999.0,  999.0,  999.0
2013/05/08 04:10,  999.0,    0.5,    2.2,    2.8,    4.3,    3.6,    7.7,    9.4,    9.5,   11.5,   15.0,   15.0,   13.7,   13.8,  999.0,  999.0,   12.4,   13.2,    9.5,  999.0,    0.3,    0.2,    0.1,   -0.1,    0.2,    0.1,    0.1,    0.1,   -0.1,   -0.1,    0.0,    0.0,    0.0,    0.2,    0.2,    0.1,   -0.2,    0.1,    0.0,    0.0,   -0.2,   -0.0,   -0.2,   -0.0,   -0.2,    0.0,   -0.1,   -0.3,   -0.1,   -0.1,    0.0,    0.1,    0.1,    0.1,    0.1,   -0.1,   -0.1,   -0.2,   -0.2,    0.1,    0.1,    0.3,    0.0,   -0.1,    0.2,    0.3,    0.2,    0.1,   -0.3,   -0.3,    0.2,   -0.1,  999.0,  999.0,  999.0,  999.0,  999.0,  999.0,  999.0,  999.0
2013/05/08 04:20,  999.0,  999.0,  999.0,  999.0,  999.0,  999.0,    4.1,    8.0,    7.3,   11.0,   13.1,   13.2,   14.6,   13.1,   13.9,   10.4,    6.7,    7.1,    4.3,    5.3,    0.1,    0.2,    0.3,    0.3,    0.1,    0.4,    0.0,   -0.2,    0.3,   -0.0,    0.4,   -0.0,    0.0,  999.0,  999.0,   -0.4,  999.0,  999.0,   -0.0,    0.0,    0.1,   -0.2,  999.0,    0.1,    0.1,    0.1,    0.1,   -0.1,   -0.1,  999.0,   -0.0,    0.0,   -0.2,   -0.1,   -0.1,   -0.1,    0.2,    0.1,    0.3,   -0.5,    0.2,    0.6,  999.0,  999.0,  999.0,  999.0,  999.0,  999.0,  999.0,  999.0,  999.0,  999.0,  999.0,  999.0,  999.0,  999.0,  999.0,  999.0,  999.0,  999.0
2013/05/08 04:30,  999.0,  999.0,    2.6,    5.5,    7.4,    6.6,    9.3,   11.0,   12.5,   13.9,   13.8,   13.4,  999.0,  999.0,   14.4,   12.7,   12.9,   13.5,  999.0,  999.0,    0.3,    0.1,    0.0,   -0.1,    0.1,   -0.1,    0.1,   -0.2,   -0.1,    0.1,    0.0,   -0.1,    0.0,    0.1,    0.0,    0.2,   -0.1,   -0.1,    0.2,    0.1,   -0.3,    0.1,    0.4,    0.2,    0.2,    0.0,    0.2,    0.2,    0.0,    0.2,    0.1,    0.1,   -0.1,    0.1,    0.1,    0.1,    0.2,   -0.1,   -0.1,   -0.1,    0.0,    0.1,  999.0,   -0.2,   -0.2,   -0.2,  999.0,  999.0,  999.0,  999.0,  999.0,  999.0,  999.0,  999.0,  999.0,  999.0,  999.0,  999.0,  999.0,  999.0
2013/05/08 04:40,  999.0,    0.6,    1.7,    6.1,    7.6,    9.4,   10.1,   10.1,   10.9,   11.9,   13.6,   15.4,   16.0,   15.5,   15.3,   13.7,   13.5,   12.8,   13.9,   15.7,  999.0,  999.0,  999.0,  999.0,   -1.1,   -0.3,   -0.4,   -0.3,   -0.4,   -0.1,    0.3,    0.1,    0.1,   -0.2,    0.2,   -0.0,   -0.1,    0.4,    0.3,   -0.0,   -0.2,    0.5,   -0.1,   -0.2,   -0.2,   -0.3,   -0.1,   -0.0,    0.0,   -0.1,   -0.0,    0.1,   -0.1,    0.1,   -0.1,   -0.1,   -0.0,    0.2,    0.1,    0.0,    0.1,   -0.2,   -0.1,   -0.1,    0.3,    0.3,   -0.0,  999.0,  999.0,  999.0,  999.0,  999.0,  999.0,  999.0,  999.0,  999.0,  999.0,  999.0,  999.0,  999.0
2013/05/08 04:50,  999.0,    0.7,    2.7,    5.4,    8.5,    8.7,   10.4,   10.7,   11.1,   14.5,   15.7,   15.9,   15.7,   13.8,   14.7,  999.0,   14.1,   14.6,   14.4,   17.5,  999.0,  999.0,  999.0,  999.0,   -0.1,    0.0,  999.0,   -0.2,   -0.1,  999.0,    0.3,    0.1,   -0.1,   -0.1,   -0.4,   -0.1,   -0.2,   -0.0,   -0.0,   -0.0,   -0.3,   -0.2,    0.1,   -0.0,    0.2,   -0.0,    0.1,   -0.0,   -0.0,   -0.1,    0.0,    0.1,   -0.1,    0.2,    0.1,    0.1,   -0.0,   -0.1,    0.1,    0.1,    0.3,    0.3,    0.2,    0.0,   -0.4,    0.4,  999.0,  999.0,  999.0,  999.0,    0.2,  999.0,  999.0,  999.0,  999.0,  999.0,  999.0,  999.0,  999.0,  999.0
2013/05/08 05:00,  999.0,    0.3,    3.7,    5.2,    8.2,    9.4,   10.5,   11.8,   12.1,   14.8,   16.3,   15.4,   14.1,   14.3,   14.9,   15.0,   14.2,   14.6,   13.3,   14.6,  999.0,  999.0,  999.0,  999.0,  999.0,   -1.0,   -0.3,   -0.0,    0.2,    0.3,    0.0,   -0.2,   -0.2,   -0.0,    0.6,    0.4,    0.2,   -0.3,   -0.3,    0.0,   -0.2,   -0.2,   -0.1,   -0.1,   -0.1,    0.2,   -0.1,    0.1,    0.1,   -0.5,   -0.0,    0.2,   -0.1,   -0.1,   -0.2,    0.0,   -0.1,    0.1,    0.2,   -0.0,   -0.1,   -0.2,  999.0,   -0.3,   -0.2,   -0.1,   -0.0,  999.0,  999.0,  999.0,    0.1,    0.0,  999.0,  999.0,  999.0,  999.0,  999.0,  999.0,  999.0,  999.0
2013/05/08 05:10,  999.0,    0.3,   -1.5,  999.0,    7.6,    8.1,    8.3,    9.7,   12.3,   13.4,   15.9,   15.2,   15.0,   14.4,   16.3,   15.1,   14.8,   14.1,   14.8,  999.0,  999.0,  999.0,  999.0,  999.0,   -0.0,  999.0,    0.4,    0.1,   -0.1,    0.3,    0.0,    0.1,   -0.1,    0.2,   -0.3,  999.0,   -0.0,   -0.2,    0.0,   -0.1,   -0.1,   -0.2,    0.3,    0.3,    0.2,    0.1,   -0.1,    0.1,   -0.0,    0.1,    0.2,    0.1,   -0.0,    0.0,    0.1,   -0.3,    0.3,   -0.1,   -0.0,    0.1,   -0.3,    0.0,   -0.2,   -0.1,   -0.3,  999.0,  999.0,  999.0,  999.0,  999.0,  999.0,  999.0,  999.0,  999.0,  999.0,  999.0,  999.0,  999.0,  999.0,  999.0
2013/05/08 05:20,  999.0,  999.0,    3.3,    4.2,    8.0,    9.7,   10.9,   11.5,   13.1,   14.4,   14.8,   15.9,   15.5,   15.0,   14.8,   14.0,   13.4,   13.2,  999.0,  999.0,  999.0,  999.0,  999.0,  999.0,   -0.1,    0.0,   -0.0,   -0.1,    0.1,   -0.3,   -0.1,   -0.1,   -0.2,   -0.1,   -0.2,    0.1,   -0.4,  999.0,   -0.3,   -0.0,    0.0,   -0.1,   -0.3,    0.1,   -0.1,    0.3,    0.1,    0.1,    0.1,    0.2,   -0.0,   -0.1,    0.0,    0.2,    0.2,    0.1,    0.2,    0.0,    0.5,   -0.0,    0.2,   -0.0,  999.0,    0.2,   -0.1,   -0.0,    0.1,  999.0,   -0.0,  999.0,   -0.0,  999.0,  999.0,  999.0,  999.0,  999.0,  999.0,  999.0,  999.0,  999.0
2013/05/08 05:30,  999.0,  999.0,  999.0,    6.2,    6.2,    8.2,   10.4,   10.8,   11.8,   14.4,   14.6,   15.5,   16.0,   16.0,   13.5,   12.1,   13.1,  999.0,  999.0,   13.0,   11.5,  999.0,  999.0,  999.0,    0.0,   -0.2,    0.1,    0.2,    0.0,    0.0,    0.1,   -0.2,   -0.1,    0.0,   -0.3,   -0.2,   -0.1,    0.1,   -0.2,   -0.2,   -0.1,  999.0,   -0.2,   -0.0,   -0.0,   -0.2,    0.1,   -0.0,   -0.1,    0.0,    0.1,    0.3,    0.4,    0.2,    0.2,   -0.1,   -0.3,   -0.2,    0.1,    0.1,    0.3,    0.1,   -0.1,   -0.0,   -0.3,    0.1,  999.0,  999.0,  999.0,  999.0,  999.0,  999.0,  999.0,  999.0,  999.0,  999.0,  999.0,  999.0,  999.0,  999.0
2013/05/08 05:40,  999.0,    2.1,  999.0,    5.8,    8.2,    8.3,   10.4,   11.4,   12.1,   13.5,   14.2,   15.1,   14.1,   17.7,   14.1,   15.2,   15.9,   14.9,   13.1,   11.4,    6.5,    7.7,   -0.1,   -0.1,    0.2,   -0.0,   -0.4,  999.0,   -0.4,   -0.1,   -0.3,   -0.3,   -0.3,  999.0,    0.1,   -0.2,   -0.1,  999.0,    0.2,    0.1,   -0.4,   -0.4,    0.3,    0.2,    0.1,    0.2,    0.2,   -0.1,    0.2,   -0.0,   -0.1,    0.0,   -0.1,   -0.2,    0.1,    0.3,    0.2,    0.1,    0.0,    0.2,    0.3,   -0.0,    0.2,  999.0,  999.0,  999.0,    0.7,    0.5,   -0.1,  999.0,  999.0,  999.0,  999.0,  999.0,  999.0,  999.0,  999.0,  999.0,  999.0,  999.0
2013/05/08 05:50,  999.0,  999.0,    2.6,  999.0,    4.1,    3.5,    7.7,   11.8,   13.0,   13.9,   15.0,   14.9,   15.4,   14.5,   13.1,   12.4,   13.1,   13.7,   13.8,   14.0,   13.2,  999.0,  999.0,  999.0,  999.0,  999.0,   -0.2,   -0.7,   -0.3,   -0.1,    0.0,    0.0,    0.1,   -0.0,  999.0,    0.0,    0.1,    0.1,  999.0,   -0.0,   -0.1,    0.0,   -0.2,    0.2,   -0.0,   -0.0,   -0.1,   -0.2,    0.2,    0.2,    0.1,    0.2,    0.1,  999.0,   -0.0,   -0.1,   -0.2,   -0.2,    0.2,   -0.2,   -0.0,   -0.1,  999.0,   -0.1,    0.2,    0.1,    0.0,  999.0,  999.0,  999.0,  999.0,   -0.1,  999.0,  999.0,  999.0,  999.0,  999.0,  999.0,  999.0,  999.0
2013/05/08 06:00,  999.0,    1.2,  999.0,  999.0,    8.3,  999.0,   10.9,   10.2,   10.7,   13.0,   12.4,   14.7,   15.1,   15.3,   15.2,   14.3,   14.3,   14.2,  999.0,  999.0,    8.2,    4.2,  999.0,  999.0,    0.1,    0.1,    0.0,   -0.0,   -0.2,   -0.0,   -0.0,    0.2,   -0.1,    0.0,    0.4,  999.0,   -0.1,  999.0,    0.1,   -0.0,   -0.4,  999.0,    0.2,    0.2,    0.0,    0.2,  999.0,   -0.0,    0.1,    0.0,    0.1,   -0.4,    0.0,    0.2,    0.1,   -0.2,   -0.4,    0.2,   -0.0,   -0.1,    0.1,  999.0,  999.0,    0.1,   -0.5,   -0.3,  999.0,    0.3,  999.0,  999.0,  999.0,  999.0,  999.0,  999.0,  999.0,  999.0,  999.0,  999.0,  999.0,  999.0
2013/05/08 06:10,  999.0,    0.3,    1.3,    1.5,    2.6,    5.7,    9.0,    8.6,  999.0,   12.4,   13.9,   13.9,   15.6,   13.4,   14.8,   13.9,   13.0,  999.0,  999.0,  999.0,  999.0,    0.6,  999.0,    0.4,    0.1,    0.0,    0.1,   -0.1,   -0.1,    0.1,    0.1,    0.0,    0.0,   -0.0,   -0.1,   -0.1,    0.2,  999.0,    0.0,   -0.0,   -0.3,   -0.3,    0.1,   -0.1,   -0.0,   -0.0,    0.1,    0.1,    0.0,   -0.2,    0.0,    0.2,    0.1,    0.2,    0.0,   -0.1,   -0.1,   -0.1,    0.0,   -0.1,   -0.0,   -0.1,    0.1,   -0.1,   -0.2,    0.1,    0.1,    0.0,    0.0,  999.0,   -0.1,  999.0,  999.0,  999.0,  999.0,  999.0,  999.0,  999.0,  999.0,  999.0
2013/05/08 06:20,  999.0,    0.1,    2.5,    3.7,    5.7,  999.0,    7.1,    8.9,   10.6,   12.0,   12.7,   13.9,   14.2,   13.4,   12.8,   12.3,   14.8,   15.6,  999.0,  999.0,  999.0,  999.0,  999.0,    0.1,   -0.0,   -0.3,    0.0,    0.1,    0.1,   -0.1,    0.0,   -0.1,    0.0,    0.1,   -0.2,   -0.1,   -0.4,    0.0,   -0.0,   -0.0,    0.1,    0.1,    0.0,    0.1,    0.0,   -0.0,    0.0,    0.0,   -0.2,    0.0,    0.3,    0.1,   -0.0,   -0.0,    0.0,    0.1,   -0.1,   -0.0,   -0.2,   -0.1,   -0.2,   -0.1,    0.3,   -0.4,    0.1,   -0.2,   -0.0,    0.0,   -0.3,   -0.6,   -0.0,    0.3,    0.1,    0.2,  999.0,  999.0,  999.0,  999.0,  999.0,  999.0
2013/05/08 06:30,  999.0,    0.3,    0.7,    4.3,    5.9,    7.4,  999.0,   10.2,   12.7,   13.3,   13.4,   14.7,   13.8,   14.3,   15.2,   14.3,   14.9,   14.4,   12.9,  999.0,  999.0,  999.0,  999.0,    0.8,    0.1,    0.1,   -0.1,   -0.1,   -0.3,   -0.3,   -0.2,   -0.1,   -0.1,   -0.1,   -0.0,    0.1,  999.0,   -0.2,   -0.1,   -0.0,   -0.2,   -0.1,   -0.1,   -0.0,    0.0,   -0.3,   -0.2,   -0.0,    0.0,   -0.1,   -0.0,   -0.0,    0.1,   -0.0,    0.0,   -0.2,    0.1,    0.1,    0.1,   -0.0,   -0.1,   -0.2,   -0.3,    0.0,    0.2,    0.2,  999.0,  999.0,   -0.4,  999.0,   -0.1,   -0.3,    0.1,    0.1,  999.0,  999.0,  999.0,  999.0,  999.0,  999.0
2013/05/08 06:40,  999.0,    0.3,    0.3,    1.0,    2.1,  999.0,  999.0,    9.0,   11.6,   12.6,   13.3,   16.2,   16.0,   15.4,   15.4,   15.1,   15.3,   15.7,   14.4,   12.8,  999.0,  999.0,  999.0,  999.0,    5.9,    4.5,    0.7,    0.0,    0.0,    0.2,   -0.2,   -0.1,   -0.1,    0.2,   -0.0,    0.0,   -0.1,   -0.2,    0.1,    0.1,   -0.1,    0.2,    0.2,    0.0,   -0.1,    0.1,    0.2,   -0.0,   -0.1,   -0.1,    0.3,    0.0,   -0.2,   -0.2,   -0.1,   -0.2,   -0.2,   -0.2,   -0.0,    0.2,    0.2,    0.1,    0.2,    0.2,    0.0,    0.1,   -0.2,    0.0,  999.0,    0.3,    0.3,   -0.1,  999.0,   -0.3,  999.0,  999.0,  999.0,  999.0,  999.0,  999.0
2013/05/08 06:50,  999.0,  999.0,  999.0,  999.0,  999.0,  999.0,  999.0,  999.0,  999.0,   14.5,  999.0,   14.2,   14.8,   14.6,   14.9,   15.1,   14.8,   14.3,   15.4,   11.6,    9.8,   11.3,   11.1,   12.3,   11.1,  999.0,  999.0,    0.1,   -0.0,    0.1,   -0.0,   -0.1,   -0.0,    0.0,   -0.2,   -0.2,    0.1,    0.1,    0.0,   -0.1,   -0.0,   -0.2,    0.0,   -0.0,    0.1,    0.2,   -0.1,   -0.1,    0.1,    0.2,    0.1,   -0.1,   -0.0,   -0.0,   -0.0,    0.0,   -0.3,   -0.1,    0.1,   -0.2,    0.0,    0.3,   -0.3,   -0.2,   -0.2,    0.1,    0.2,    0.1,   -0.5,   -0.0,   -0.4,  999.0,  999.0,   -0.1,   -0.2,  999.0,  999.0,  999.0,  999.0,  999.0
2013/05/08 07:00,  999.0,  999.0,    0.8,  999.0,    1.5,  999.0,  999.0,  999.0,   10.5,   11.4,   12.4,   12.2,   14.3,   14.1,   13.9,   14.5,   14.7,   14.6,   13.1,   12.2,    9.9,   10.2,   11.0,   13.0,  999.0,  999.0,  999.0,    0.4,    0.1,   -0.0,    0.3,    0.1,    0.0,    0.3,   -0.0,    0.1,    0.1,    0.2,   -0.1,    0.1,    0.0,   -0.1,    0.0,   -0.0,   -0.2,   -0.1,    0.1,   -0.1,   -0.3,   -0.3,    0.0,   -0.1,   -0.1,    0.1,    0.2,    0.1,   -0.0,   -0.2,    0.1,   -0.2,   -0.2,    0.2,    0.1,    0.1,   -0.2,   -0.2,  999.0,   -0.4,  999.0,  999.0,  999.0,    0.2,    0.0,  999.0,  999.0,  999.0,  999.0,  999.0,  999.0,  999.0
2013/05/08 07:10,  999.0,   -0.1,   -0.1,   -0.1,    0.4,    0.2,  999.0,  999.0,  999.0,  999.0,    9.4,   11.4,   12.0,   11.8,   12.4,   12.6,   13.7,  999.0,  999.0,    0.9,    0.2,    0.2,    0.3,    0.4,    0.5,    0.5,    0.5,    0.4,    0.2,   -0.2,   -0.1,   -0.0,    0.1,   -0.2,   -0.2,    0.0,   -0.2,    0.2,    0.0,   -0.0,   -0.1,    0.1,  999.0,   -0.2,   -0.1,    0.1,   -0.1,    0.1,    0.0,    0.1,   -0.0,   -0.1,    0.0,    0.2,   -0.1,   -0.1,    0.2,   -0.1,   -0.3,    0.1,    0.1,   -0.1,    0.1,    0.3,   -0.2,    0.1,  999.0,  999.0,  999.0,   -0.2,   -0.2,   -0.1,   -0.1,  999.0,    0.0,  999.0,  999.0,  999.0,  999.0,  999.0
2013/05/08 07:20,  999.0,    0.3,    0.6,    0.2,    0.4,    0.5,    1.0,    0.8,    0.2,   -0.2,   -0.7,    0.0,   -0.6,   -0.9,   -1.5,   -1.0,   -0.6,    0.3,    0.2,    0.1,    0.2,    0.3,    0.3,    0.4,    0.3,    0.4,    0.2,    0.1,   -0.0,    0.2,    0.0,    0.1,   -0.0,   -0.1,   -0.3,   -0.2,   -0.1,  999.0,   -0.1,    0.3,   -0.1,   -0.3,   -0.2,   -0.1,   -0.1,   -0.1,    0.3,   -0.1,   -0.3,    0.3,    0.1,    0.2,    0.2,    0.0,    0.0,    0.0,   -0.2,   -0.0,    0.1,   -0.2,    0.2,   -0.4,   -0.2,    0.2,   -0.2,   -0.2,   -0.1,   -0.2,   -0.1,   -0.2,   -0.2,   -0.1,  999.0,    0.1,    0.0,  999.0,  999.0,  999.0,  999.0,  999.0
2013/05/08 07:30,  999.0,  999.0,  999.0,  999.0,  999.0,    0.0,  999.0,  999.0,   11.3,   11.5,   11.7,   13.5,   14.1,   10.8,   11.0,   11.1,   10.3,    0.1,    0.2,    0.1,    0.0,    0.6,    0.4,    0.1,    0.1,    0.3,    0.2,    0.1,    0.1,   -0.0,   -0.1,   -0.1,    0.2,    0.4,   -0.0,   -0.2,   -0.1,    0.4,    0.2,   -0.2,   -0.0,   -0.1,   -0.1,    0.1,   -0.1,    0.1,    1.2,    1.4,    0.9,    0.2,   -0.2,    0.1,   -0.1,   -0.1,    0.0,    0.2,    0.1,    0.3,    0.2,   -0.0,   -0.2,  999.0,   -0.3,  999.0,  999.0,  999.0,   -0.0,  999.0,   -0.2,   -0.2,    0.2,   -0.2,  999.0,  999.0,    0.0,  999.0,  999.0,  999.0,  999.0,  999.0
2013/05/08 07:40,  999.0,  999.0,  999.0,    0.4,   -0.1,    0.1,    0.1,    0.0,  999.0,  999.0,  999.0,  999.0,   10.7,    9.3,    9.1,   11.1,    4.5,   -0.2,   -0.0,    0.0,    0.2,    0.0,    0.0,    0.1,    0.1,    0.0,    0.1,    0.0,    0.2,   -0.0,   -0.2,    0.2,    0.0,   -0.1,    0.2,    0.1,    0.1,    0.2,   -0.2,    0.0,    0.0,    0.1,    0.0,    0.1,    0.3,    0.9,    2.0,    1.5,    0.3,   -0.2,   -0.0,   -0.1,    0.1,    0.0,   -0.0,   -0.0,   -0.0,    0.2,   -0.1,   -0.0,   -0.0,    0.1,    0.1,   -0.2,   -0.2,  999.0,   -0.3,  999.0,    0.7,  999.0,   -0.1,   -0.5,  999.0,    0.1,  999.0,  999.0,  999.0,  999.0,  999.0,  999.0
2013/05/08 07:50,  999.0,  999.0,   -0.0,    0.0,    0.0,   -0.1,    0.0,    0.0,    0.0,   -0.2,   -0.1,   -0.3,   -0.1,   -0.2,   -0.1,   -0.2,   -0.1,   -0.0,    0.0,    0.1,    0.1,   -0.0,    0.1,   -0.1,   -0.0,    0.0,   -0.0,   -0.0,    0.1,   -0.0,    0.1,    0.1,    0.1,    0.0,   -0.1,    0.0,   -0.1,   -0.0,    0.0,    0.0,    0.1,   -0.2,   -0.1,    0.4,    1.0,    0.9,    0.0,    0.0,    0.1,   -0.1,   -0.2,   -0.1,   -0.1,   -0.1,   -0.1,   -0.1,   -0.0,    0.3,    0.0,   -0.1,    0.1,   -0.0,    0.0,   -0.2,    0.1,    0.1,    0.0,    0.2,   -0.3,   -0.3,    0.1,    0.2,   -0.0,    0.1,   -0.2,  999.0,  999.0,  999.0,  999.0,  999.0
2013/05/08 08:00,  999.0,  999.0,   -0.1,    0.0,   -0.0,    0.0,    0.1,   -0.0,   -0.1,   -0.1,   -0.1,   -0.2,    0.2,   -0.1,   -0.2,   -0.2,   -0.1,   -0.0,    0.0,   -0.0,   -0.0,    0.0,   -0.0,    0.0,    0.1,   -0.0,   -0.1,    0.0,    0.1,   -0.0,    0.1,    0.0,   -0.1,   -0.1,   -0.0,   -0.1,    0.0,    0.0,   -0.1,   -0.1,   -0.1,   -0.1,   -0.0,   -0.0,   -0.2,   -0.1,    0.0,    0.1,   -0.0,    0.3,   -0.0,    0.0,   -0.1,    0.1,   -0.2,   -0.3,    0.2,    0.1,   -0.1,   -0.3,    0.0,   -0.0,    0.0,   -0.1,    0.1,    0.1,    0.2,   -0.2,    0.1,   -0.3,    0.2,    0.1,    0.1,    0.0,   -0.4,    0.1,  999.0,  999.0,  999.0,  999.0
2013/05/08 08:10,  999.0,  999.0,    0.2,    0.1,    0.0,   -0.1,    0.0,    0.1,    0.1,    0.1,    0.0,   -0.1,   -0.0,   -0.1,    0.1,    0.0,   -0.0,  999.0,   -0.0,   -0.0,    0.1,    0.1,   -0.0,   -0.0,    0.0,   -0.0,   -0.1,    0.0,    0.1,   -0.0,    0.1,    0.0,   -0.1,    0.0,   -0.0,   -0.0,   -0.1,   -0.1,   -0.0,   -0.0,   -0.1,   -0.0,   -0.1,   -0.1,    0.1,    0.3,    0.4,    0.1,   -0.2,   -0.1,   -0.1,    0.0,   -0.0,    0.0,    0.1,    0.1,    0.0,    0.1,   -0.1,   -0.2,   -0.2,    0.3,   -0.0,   -0.1,    0.0,    0.1,    0.0,    0.0,    0.1,   -0.3,   -0.1,   -0.2,    0.1,    0.1,    0.1,  999.0,  999.0,  999.0,  999.0,  999.0
2013/05/08 08:20,  999.0,  999.0,   -0.0,    0.0,   -0.1,   -0.0,   -0.0,    0.0,    0.0,    0.0,   -0.0,   -0.1,   -0.1,   -0.1,   -0.0,    0.1,    0.1,    0.1,   -0.0,    0.0,    0.0,    0.1,    0.1,    0.1,    0.0,   -0.0,   -0.0,   -0.0,    0.0,    0.0,   -0.1,    0.0,    0.1,   -0.0,    0.0,    0.0,    0.0,   -0.0,    0.1,   -0.0,   -0.1,   -0.1,   -0.1,    0.1,    0.4,    0.5,    0.5,    0.1,   -0.1,   -0.1,   -0.0,   -0.1,   -0.0,    0.1,   -0.0,   -0.0,    0.0,   -0.0,   -0.1,   -0.1,   -0.0,   -0.2,   -0.3,    0.1,    0.3,    0.2,   -0.0,    0.1,    0.3,  999.0,   -0.0,    0.4,   -0.0,   -0.0,   -0.2,  999.0,  999.0,  999.0,  999.0,  999.0
2013/05/08 08:30,  999.0,  999.0,    0.0,    0.1,   -0.0,    0.0,    0.1,    0.1,    0.0,    0.0,   -0.0,   -0.0,   -0.0,   -0.0,   -0.0,   -0.0,   -0.0,   -0.0,   -0.1,   -0.1,   -0.1,   -0.0,   -0.0,    0.1,    0.1,   -0.0,   -0.0,   -0.0,    0.0,    0.0,   -0.1,    0.0,    0.0,    0.1,    0.0,    0.1,    0.1,    0.0,    0.1,   -0.0,   -0.0,    0.1,    0.1,    0.4,    0.5,    0.5,    0.2,   -0.2,   -0.1,    0.0,   -0.2,   -0.0,   -0.0,    0.0,   -0.0,    0.0,   -0.0,   -0.1,    0.0,   -0.1,   -0.1,   -0.0,   -0.0,    0.2,   -0.0,    0.1,    0.2,    0.1,   -0.1,    0.2,    0.2,   -0.3,    0.0,    0.1,    0.2,  999.0,  999.0,  999.0,  999.0,  999.0
2013/05/08 08:40,  999.0,  999.0,   -0.2,    0.1,    0.0,    0.1,   -0.0,   -0.0,   -0.0,    0.0,   -0.0,   -0.0,   -0.1,   -0.0,    0.0,   -0.0,   -0.0,   -0.1,   -0.0,    0.0,   -0.0,    0.0,   -0.0,   -0.1,   -0.1,   -0.0,   -0.0,    0.0,   -0.0,    0.1,    0.0,    0.1,    0.0,   -0.0,   -0.1,   -0.1,    0.0,    0.2,    0.1,   -0.1,    0.0,    0.2,    0.1,    0.2,    0.2,    0.2,    0.1,    0.0,   -0.0,    0.1,   -0.1,   -0.0,   -0.0,   -0.1,   -0.1,    0.0,   -0.0,   -0.1,   -0.0,   -0.1,    0.1,    0.0,    0.0,   -0.1,   -0.0,   -0.1,    0.1,   -0.1,   -0.2,   -0.1,   -0.3,    0.1,   -0.1,   -0.3,    0.0,  999.0,  999.0,  999.0,  999.0,  999.0
2013/05/08 08:50,  999.0,  999.0,   -0.0,   -0.0,    0.0,    0.0,   -0.0,    0.0,    0.0,   -0.0,    0.0,    0.0,    0.0,    0.0,    0.0,   -0.1,   -0.1,   -0.1,   -0.0,    0.0,   -0.0,   -0.1,   -0.1,    0.0,    0.0,    0.0,    0.0,   -0.0,   -0.0,   -0.0,   -0.0,   -0.1,   -0.0,    0.0,    0.1,    0.1,    0.0,    0.1,    0.1,    0.0,   -0.0,    0.0,    0.1,    0.0,    0.0,   -0.0,    0.0,   -0.1,    0.1,   -0.1,    0.0,    0.0,    0.0,    0.0,    0.0,   -0.0,    0.0,    0.1,    0.2,   -0.0,   -0.1,   -0.1,    0.1,   -0.1,    0.1,   -0.0,    0.2,    0.1,    0.1,   -0.2,    0.3,   -0.2,   -0.0,   -0.1,   -0.0,  999.0,  999.0,  999.0,  999.0,    0.3
2013/05/08 09:00,  999.0,  999.0,   -0.0,   -0.1,    0.0,    0.0,    0.1,   -0.0,   -0.0,   -0.0,   -0.0,    0.0,    0.0,   -0.0,   -0.0,   -0.0,   -0.0,   -0.1,   -0.0,    0.0,   -0.0,   -0.0,   -0.0,   -0.0,   -0.0,   -0.0,   -0.0,   -0.1,   -0.1,   -0.0,   -0.1,   -0.1,   -0.0,    0.0,    0.2,    0.1,   -0.0,    0.0,    0.0,    0.0,    0.1,    0.1,    0.0,    0.0,   -0.0,   -0.0,   -0.0,   -0.0,   -0.0,    0.0,   -0.1,   -0.0,   -0.0,   -0.1,   -0.0,   -0.0,   -0.0,    0.1,    0.0,    0.1,    0.0,   -0.0,   -0.0,   -0.1,    0.0,   -0.1,   -0.1,   -0.0,    0.2,    0.1,   -0.1,   -0.1,    0.1,   -0.1,    0.1,   -0.3,  999.0,  999.0,  999.0,  999.0
2013/05/08 09:10,  999.0,  999.0,    0.0,   -0.1,    0.0,    0.1,    0.0,   -0.0,   -0.0,   -0.0,   -0.0,    0.0,    0.0,   -0.0,    0.0,    0.1,    0.0,    0.0,   -0.1,    0.0,   -0.0,    0.0,    0.0,   -0.0,   -0.1,    0.0,   -0.0,   -0.0,   -0.0,   -0.0,    0.0,   -0.0,   -0.0,    0.0,    0.1,    0.1,   -0.0,   -0.0,    0.1,    0.3,    0.3,    0.3,    0.1,    0.0,   -0.0,    0.0,    0.0,   -0.1,    0.0,   -0.1,   -0.1,    0.0,    0.1,    0.0,   -0.1,   -0.1,   -0.1,    0.2,   -0.1,    0.1,   -0.1,   -0.1,    0.0,    0.0,   -0.1,   -0.0,    0.1,   -0.2,   -0.2,   -0.0,   -0.0,    0.1,   -0.1,   -0.1,    0.1,  999.0,  999.0,  999.0,  999.0,  999.0
2013/05/08 09:20,  999.0,  999.0,   -0.1,    0.0,    0.0,   -0.0,   -0.0,   -0.0,    0.1,    0.1,   -0.0,    0.0,   -0.1,    0.0,   -0.1,   -0.0,  999.0,   -0.1,   -0.1,   -0.0,   -0.0,    0.0,    0.0,   -0.1,   -0.0,   -0.0,   -0.2,   -0.0,   -0.2,  999.0,    0.1,    0.0,   -0.0,   -0.1,    0.1,    0.1,   -0.0,   -0.1,    0.2,    0.3,    0.6,    0.5,    0.1,    0.0,   -0.0,    0.0,    0.1,    0.1,   -0.0,    0.1,    0.0,   -0.1,   -0.1,   -0.0,   -0.0,   -0.0,   -0.0,    0.0,    0.1,    0.1,    0.1,   -0.0,   -0.1,   -0.1,   -0.1,    0.2,    0.2,    0.1,   -0.1,   -0.2,    0.0,    0.0,    0.1,    0.0,    0.3,  999.0,   -0.1,  999.0,  999.0,  999.0
2013/05/08 09:30,  999.0,  999.0,    0.1,   -0.1,   -0.0,   -0.0,    0.0,   -0.0,   -0.0,    0.0,    0.0,    0.0,    0.0,    0.0,   -0.0,   -0.0,    0.1,    0.1,    0.1,   -0.1,   -0.1,   -0.0,   -0.1,    0.0,   -0.1,   -0.0,  999.0,    0.1,    0.0,   -0.0,    0.0,    0.1,   -0.0,   -0.0,   -0.1,    0.0,    0.0,    0.1,    0.1,   -0.0,   -0.1,   -0.0,   -0.0,   -0.1,   -0.1,   -0.1,    0.0,    0.0,   -0.1,   -0.0,   -0.1,    0.1,    0.1,   -0.0,   -0.1,   -0.2,    0.1,   -0.1,    0.1,    0.0,    0.0,   -0.1,   -0.2,   -0.1,   -0.1,    0.0,    0.2,   -0.1,   -0.1,    0.0,   -0.2,   -0.2,    0.0,   -0.1,    0.1,    0.0,  999.0,  999.0,  999.0,  999.0
2013/05/08 09:40,  999.0,  999.0,   -0.0,    0.0,    0.1,    0.1,   -0.0,   -0.1,   -0.1,   -0.0,   -0.0,   -0.1,    0.0,    0.0,   -0.0,    0.0,   -0.0,   -0.0,   -0.0,   -0.0,    0.0,    0.0,   -0.0,   -0.1,    0.0,    0.0,    0.1,    0.0,   -0.0,   -0.0,    0.0,   -0.0,   -0.0,   -0.0,    0.0,    0.1,    0.0,    0.1,    0.1,    0.1,   -0.1,   -0.0,    0.0,    0.0,   -0.1,    0.1,   -0.0,    0.1,   -0.0,    0.1,    0.0,    0.1,   -0.1,    0.0,    0.1,   -0.0,   -0.0,    0.1,    0.0,   -0.0,    0.0,   -0.1,   -0.1,    0.0,    0.1,    0.0,   -0.1,    0.0,   -0.2,   -0.1,    0.1,   -0.1,    0.1,    0.1,    0.1,  999.0,  999.0,  999.0,  999.0,  999.0
2013/05/08 09:50,  999.0,  999.0,   -0.1,   -0.1,    0.0,    0.0,    0.0,    0.0,   -0.1,    0.0,   -0.1,   -0.0,   -0.0,   -0.0,    0.0,   -0.0,    0.0,    0.1,    0.0,   -0.0,   -0.1,   -0.0,   -0.1,   -0.1,   -0.1,   -0.0,  999.0,   -0.0,    0.0,    0.0,    0.0,    0.1,    0.1,    0.0,    0.1,    0.0,    0.1,    0.0,   -0.0,    0.0,   -0.1,    0.0,   -0.0,    0.1,    0.0,   -0.1,   -0.1,   -0.1,    0.1,    0.0,    0.0,   -0.1,   -0.2,    0.0,    0.2,    0.1,    0.1,   -0.1,    0.0,   -0.0,    0.0,    0.1,   -0.0,    0.1,    0.1,    0.1,   -0.0,    0.0,    0.1,    0.3,   -0.1,   -0.1,    0.1,   -0.1,   -0.2,    0.5,  999.0,  999.0,  999.0,  999.0
2013/05/08 10:00,  999.0,  999.0,   -0.0,    0.0,    0.0,   -0.0,   -0.0,   -0.0,    0.0,   -0.0,   -0.0,    0.0,    0.0,    0.0,   -0.0,   -0.0,    0.0,   -0.0,   -0.0,   -0.1,   -0.1,   -0.0,    0.0,    0.0,    0.1,    0.1,   -0.1,   -0.0,   -0.0,    0.1,    0.0,   -0.0,   -0.0,    0.0,    0.1,    0.1,   -0.1,   -0.0,   -0.1,    0.0,   -0.0,    0.0,    0.1,    0.1,    0.0,    0.1,   -0.0,    0.0,    0.0,    0.1,    0.0,   -0.1,   -0.1,    0.0,    0.1,   -0.0,    0.1,    0.0,    0.0,   -0.1,   -0.0,   -0.1,    0.1,    0.1,   -0.1,    0.0,   -0.0,   -0.1,    0.0,    0.0,   -0.0,   -0.2,    0.1,    0.1,    0.2,   -0.1,  999.0,  999.0,  999.0,  999.0
2013/05/08 10:10,  999.0,  999.0,   -0.0,   -0.0,   -0.0,    0.0,    0.1,    0.1,    0.0,    0.1,   -0.0,   -0.1,   -0.0,   -0.1,   -0.0,   -0.1,   -0.0,   -0.1,   -0.0,    0.0,   -0.0,   -0.0,    0.0,   -0.1,    0.0,   -0.0,    0.0,   -0.0,   -0.0,   -0.0,   -0.0,    0.0,   -0.1,    0.0,    0.1,    0.2,    0.2,    0.1,   -0.1,    0.0,   -0.0,   -0.0,    0.0,    0.0,    0.0,    0.0,    0.0,    0.0,    0.1,    0.0,    0.1,   -0.0,    0.1,   -0.1,   -0.0,   -0.2,    0.1,   -0.0,   -0.1,   -0.1,   -0.0,    0.0,   -0.0,    0.0,    0.1,   -0.0,   -0.1,   -0.1,   -0.1,   -0.1,    0.1,    0.1,    0.0,   -0.1,   -0.0,  999.0,   -0.1,  999.0,  999.0,  999.0
2013/05/08 10:20,  999.0,  999.0,    0.1,    0.1,   -0.0,   -0.0,   -0.1,    0.1,    0.0,    0.0,   -0.0,   -0.0,   -0.0,    0.1,   -0.1,   -0.1,    0.0,    0.0,    0.1,    0.0,    0.0,   -0.0,    0.0,   -0.0,   -0.1,   -0.0,    0.1,   -0.0,   -0.0,    0.1,   -0.0,    0.1,    0.0,   -0.0,   -0.0,    0.4,    0.2,    0.1,    0.1,   -0.0,   -0.0,   -0.0,    0.1,    0.0,    0.0,   -0.0,   -0.1,   -0.1,   -0.0,   -0.0,   -0.0,    0.0,    0.1,   -0.0,   -0.1,   -0.1,    0.1,   -0.2,   -0.1,   -0.0,    0.1,   -0.0,   -0.1,   -0.0,    0.0,    0.1,    0.1,    0.1,    0.0,   -0.2,    0.1,   -0.1,    0.0,    0.1,   -0.1,  999.0,  999.0,  999.0,  999.0,  999.0
2013/05/08 10:30,  999.0,  999.0,    0.1,   -0.0,   -0.0,    0.1,    0.0,    0.0,    0.0,    0.0,    0.1,   -0.0,    0.1,    0.1,    0.0,    0.0,   -0.0,   -0.1,   -0.1,   -0.1,    0.0,    0.0,   -0.1,   -0.0,   -0.0,   -0.0,    0.0,    0.1,   -0.1,    0.0,    0.1,    0.1,   -0.0,   -0.0,   -0.0,    0.6,    0.4,    0.4,    0.1,   -0.0,   -0.0,    0.1,    0.1,    0.1,    0.0,    0.1,    0.1,    0.0,   -0.0,    0.0,   -0.0,   -0.1,   -0.1,   -0.0,   -0.1,   -0.1,    0.1,   -0.0,    0.0,   -0.1,   -0.0,   -0.1,   -0.0,   -0.0,   -0.0,    0.0,    0.1,    0.0,   -0.1,    0.1,    0.0,   -0.1,    0.2,   -0.1,    0.1,    0.2,  999.0,  999.0,  999.0,  999.0
2013/05/08 10:40,  999.0,  999.0,    0.0,    0.0,    0.0,   -0.0,   -0.0,   -0.0,   -0.0,   -0.1,    0.0,    0.0,    0.0,   -0.0,    0.0,   -0.0,    0.0,   -0.0,    0.1,    0.0,   -0.0,    0.0,   -0.0,   -0.0,   -0.0,   -0.0,    0.1,   -0.1,   -0.0,    0.0,    0.0,    0.0,   -0.1,   -0.0,    0.0,    0.3,    0.2,    0.2,    0.1,    0.0,    0.0,   -0.0,    0.0,   -0.0,   -0.1,   -0.0,    0.0,    0.1,   -0.1,    0.0,    0.0,    0.0,   -0.1,   -0.0,   -0.0,   -0.0,   -0.0,   -0.0,   -0.0,   -0.0,   -0.0,   -0.0,    0.1,   -0.1,   -0.0,    0.0,   -0.0,    0.1,   -0.1,    0.1,   -0.1,    0.2,    0.2,   -0.0,   -0.0,   -0.3,  999.0,  999.0,  999.0,  999.0
2013/05/08 10:50,  999.0,  999.0,    0.0,   -0.0,   -0.2,    0.0,    0.0,    0.0,    0.0,    0.1,   -0.0,    0.1,   -0.0,    0.0,   -0.1,   -0.0,    0.0,    0.0,    0.0,    0.0,   -0.0,    0.1,   -0.0,   -0.1,    0.0,    0.1,   -0.0,    0.0,   -0.0,    0.1,    0.0,    0.1,    0.0,   -0.0,    0.0,    0.1,    0.1,    0.1,    0.1,    0.1,   -0.0,   -0.0,   -0.0,   -0.1,   -0.0,    0.0,    0.1,   -0.1,   -0.0,   -0.0,    0.0,   -0.0,    0.0,   -0.0,   -0.1,    0.1,   -0.1,   -0.2,   -0.2,   -0.2,    0.1,    0.0,   -0.1,    0.0,   -0.0,   -0.1,   -0.0,   -0.2,   -0.2,    0.1,    0.2,   -0.0,   -0.1,    0.0,   -0.1,  999.0,  999.0,  999.0,  999.0,  999.0
2013/05/08 11:00,  999.0,  999.0,   -0.0,    0.0,    0.1,   -0.0,    0.1,    0.0,    0.1,    0.1,    0.1,   -0.0,   -0.1,   -0.0,   -0.0,    0.0,   -0.0,   -0.1,   -0.1,    0.0,   -0.0,    0.0,   -0.0,    0.0,   -0.0,    0.0,    0.0,   -0.0,   -0.0,    0.1,   -0.0,    0.1,   -0.0,    0.0,    0.0,   -0.0,    0.0,    0.1,    0.1,   -0.0,   -0.1,   -0.1,   -0.0,   -0.1,   -0.1,    0.0,    0.0,   -0.0,   -0.1,    0.0,    0.1,    0.0,    0.1,   -0.1,   -0.2,    0.0,    0.1,   -0.1,   -0.2,   -0.1,    0.0,    0.0,    0.0,   -0.1,   -0.2,    0.0,    0.0,   -0.1,   -0.0,    0.1,    0.0,   -0.0,    0.0,    0.0,   -0.0,  999.0,  999.0,  999.0,  999.0,  999.0
2013/05/08 11:10,  999.0,  999.0,    0.1,   -0.1,   -0.0,   -0.0,    0.0,   -0.1,    0.0,    0.1,    0.1,    0.1,   -0.0,   -0.0,    0.0,    0.1,   -0.0,    0.0,   -0.0,   -0.0,    0.0,    0.0,   -0.0,    0.0,    0.0,   -0.0,    0.1,    0.0,   -0.0,   -0.1,   -0.0,   -0.0,    0.0,   -0.0,    0.1,   -0.1,   -0.0,    0.0,   -0.1,   -0.0,   -0.1,   -0.2,   -0.1,    0.0,   -0.1,   -0.0,    0.0,    0.0,   -0.0,    0.0,    0.1,    0.1,    0.0,   -0.0,    0.0,    0.0,   -0.0,   -0.1,   -0.0,   -0.0,    0.0,   -0.0,    0.0,    0.0,    0.1,   -0.0,    0.0,   -0.0,    0.1,   -0.2,    0.0,    0.1,   -0.0,   -0.2,    0.0,  999.0,  999.0,  999.0,  999.0,    0.4
2013/05/08 11:20,  999.0,  999.0,   -0.0,    0.0,    0.0,    0.0,   -0.0,   -0.0,   -0.1,   -0.1,   -0.0,   -0.0,    0.0,   -0.0,   -0.0,    0.0,    0.1,    0.1,    0.0,    0.0,   -0.0,   -0.0,   -0.0,   -0.1,    0.0,    0.0,    0.0,    0.0,   -0.1,    0.0,    0.0,    0.1,   -0.0,   -0.1,   -0.0,    0.0,    0.0,   -0.0,    0.1,    0.0,   -0.0,    0.0,    0.0,   -0.0,   -0.1,   -0.1,   -0.0,    0.0,   -0.0,    0.0,   -0.1,    0.0,    0.0,   -0.1,    0.0,    0.1,    0.1,    0.0,    0.1,   -0.1,   -0.0,    0.0,    0.0,   -0.0,    0.1,    0.1,    0.0,    0.0,    0.1,    0.1,    0.2,  999.0,   -0.0,    0.0,    0.2,  999.0,  999.0,  999.0,  999.0,  999.0
2013/05/08 11:30,  999.0,  999.0,    0.0,    0.1,    0.0,   -0.0,   -0.1,   -0.0,    0.0,    0.1,    0.0,    0.0,   -0.0,   -0.1,   -0.0,    0.0,    0.0,    0.1,   -0.0,   -0.0,   -0.0,   -0.0,    0.0,    0.1,    0.0,   -0.0,    0.1,    0.0,   -0.0,    0.0,    0.0,    0.0,   -0.0,    0.0,   -0.0,   -0.0,   -0.1,   -0.0,   -0.0,   -0.0,   -0.0,   -0.0,   -0.0,   -0.0,   -0.1,   -0.0,   -0.0,   -0.0,   -0.0,    0.0,    0.0,    0.1,    0.1,    0.0,    0.0,    0.0,    0.1,   -0.1,   -0.0,    0.1,    0.0,   -0.0,    0.0,    0.1,    0.1,    0.0,   -0.0,   -0.0,   -0.2,   -0.1,    0.1,    0.1,   -0.1,   -0.1,   -0.0,  999.0,  999.0,  999.0,  999.0,  999.0
2013/05/08 11:40,  999.0,  999.0,   -0.1,   -0.0,   -0.1,   -0.1,   -0.0,   -0.0,   -0.0,    0.0,    0.0,   -0.0,    0.0,   -0.0,   -0.0,    0.0,   -0.0,    0.1,    0.1,   -0.1,   -0.0,    0.0,   -0.0,    0.1,    0.0,   -0.0,    0.0,    0.0,   -0.0,   -0.0,   -0.1,    0.0,    0.0,    0.1,   -0.0,    0.0,   -0.0,   -0.0,    0.0,   -0.0,   -0.1,   -0.1,   -0.0,    0.0,    0.0,   -0.0,    0.0,   -0.0,   -0.0,   -0.1,   -0.0,   -0.0,    0.0,   -0.0,   -0.1,    0.1,    0.1,   -0.1,    0.1,   -0.1,    0.1,   -0.0,   -0.1,    0.1,   -0.0,    0.0,    0.0,   -0.0,    0.0,  999.0,    0.1,    0.4,    0.0,   -0.0,    0.1,    0.2,    0.2,  999.0,  999.0,  999.0
2013/05/08 11:50,  999.0,  999.0,   -0.0,   -0.1,   -0.0,   -0.0,   -0.0,    0.0,   -0.1,   -0.0,   -0.0,    0.0,   -0.0,   -0.0,   -0.1,   -0.0,   -0.0,   -0.0,   -0.0,   -0.0,   -0.0,    0.0,   -0.0,   -0.0,   -0.0,   -0.0,    0.1,   -0.0,    0.0,    0.1,   -0.0,   -0.0,   -0.1,   -0.0,   -0.0,   -0.1,   -0.0,    0.0,    0.0,   -0.0,   -0.1,   -0.0,   -0.1,   -0.0,   -0.0,   -0.0,   -0.0,    0.1,   -0.0,   -0.0,    0.0,    0.0,    0.0,   -0.0,   -0.1,   -0.1,    0.0,   -0.1,   -0.1,    0.0,    0.0,   -0.1,    0.0,   -0.0,    0.1,    0.1,    0.1,    0.0,    0.0,    0.1,    0.2,    0.0,   -0.1,   -0.1,    0.2,  999.0,  999.0,  999.0,  999.0,  999.0
2013/05/08 12:00,  999.0,  999.0,   -0.0,   -0.0,   -0.0,   -0.0,   -0.0,   -0.1,   -0.1,    0.0,    0.0,    0.0,   -0.1,   -0.1,   -0.0,    0.1,    0.1,   -0.0,    0.0,   -0.0,   -0.0,    0.0,    0.0,   -0.1,   -0.0,    0.1,    0.1,    0.1,    0.0,   -0.0,    0.1,   -0.1,    0.1,    0.0,    0.0,    0.1,   -0.0,    0.1,    0.1,    0.0,   -0.1,   -0.0,    0.1,    0.1,    0.0,    0.0,    0.0,    0.0,    0.0,    0.0,   -0.0,   -0.0,    0.0,    0.0,    0.0,    0.0,   -0.1,   -0.1,   -0.0,    0.0,   -0.1,    0.0,   -0.0,   -0.1,    0.0,   -0.0,   -0.1,   -0.1,   -0.0,   -0.0,   -0.2,   -0.2,   -0.0,    0.0,    0.0,   -0.1,    0.6,  999.0,  999.0,  999.0
2013/05/08 12:10,  999.0,  999.0,   -0.1,   -0.0,   -0.1,   -0.0,   -0.0,    0.0,   -0.0,    0.0,    0.1,    0.1,   -0.0,   -0.0,   -0.1,   -0.1,   -0.0,   -0.0,   -0.0,   -0.0,   -0.0,    0.0,   -0.0,   -0.0,    0.0,    0.1,    0.0,   -0.0,   -0.0,    0.0,    0.0,   -0.0,    0.1,    0.0,    0.0,    0.0,    0.0,   -0.0,   -0.0,   -0.0,    0.0,   -0.1,   -0.0,   -0.1,   -0.1,    0.0,    0.0,   -0.0,    0.0,   -0.0,   -0.0,   -0.0,    0.0,    0.1,    0.1,    0.1,   -0.0,    0.1,   -0.0,    0.0,    0.0,   -0.0,    0.0,    0.0,   -0.0,    0.0,    0.0,   -0.1,   -0.1,    0.2,    0.0,    0.1,    0.2,   -0.1,    0.1,    0.4,  999.0,  999.0,  999.0,  999.0
2013/05/08 12:20,  999.0,  999.0,    0.0,    0.0,   -0.0,    0.0,    0.0,    0.0,   -0.0,   -0.1,   -0.1,   -0.1,   -0.0,   -0.0,   -0.1,   -0.0,   -0.0,    0.0,    0.0,    0.0,   -0.0,   -0.0,    0.0,    0.0,    0.0,    0.0,    0.0,   -0.0,   -0.0,   -0.0,    0.1,   -0.1,   -0.0,   -0.0,    0.1,    0.0,   -0.1,    0.1,    0.1,    0.0,   -0.0,   -0.0,    0.1,    0.1,    0.0,    0.0,    0.1,    0.1,    0.0,   -0.0,   -0.1,   -0.0,   -0.1,    0.0,    0.0,    0.0,    0.1,    0.0,   -0.0,    0.0,    0.1,   -0.0,   -0.0,    0.1,    0.1,   -0.0,   -0.0,   -0.1,    0.2,    0.2,    0.1,    0.0,   -0.0,   -0.1,   -0.0,    0.1,  999.0,  999.0,  999.0,  999.0
2013/05/08 12:30,  999.0,  999.0,   -0.0,    0.0,    0.0,    0.0,    0.0,    0.0,   -0.0,    0.1,   -0.0,    0.0,    0.0,   -0.0,   -0.1,   -0.0,   -0.1,    0.0,   -0.0,    0.0,   -0.0,    0.0,    0.0,    0.1,    0.0,    0.0,   -0.0,   -0.0,    0.0,   -0.0,   -0.0,   -0.0,   -0.1,   -0.1,   -0.1,    0.0,   -0.1,   -0.0,    0.0,    0.0,   -0.0,   -0.0,   -0.0,   -0.1,   -0.1,   -0.1,   -0.1,    0.0,   -0.0,   -0.0,   -0.1,    0.1,    0.0,   -0.0,   -0.0,   -0.0,   -0.0,    0.0,    0.1,    0.0,   -0.1,   -0.0,    0.0,    0.0,    0.1,   -0.0,    0.0,    0.0,   -0.0,   -0.4,    0.2,  999.0,   -0.0,   -0.2,   -0.1,  999.0,  999.0,  999.0,  999.0,  999.0
2013/05/08 12:40,  999.0,  999.0,    0.1,   -0.0,   -0.0,   -0.0,    0.0,    0.1,   -0.0,    0.0,    0.0,    0.1,    0.1,   -0.0,   -0.1,   -0.0,    0.0,   -0.0,   -0.0,    0.0,   -0.1,   -0.0,   -0.0,   -0.0,    0.0,    0.1,    0.0,    0.0,    0.0,    0.1,   -0.0,   -0.0,   -0.0,   -0.1,    0.0,    0.0,    0.0,    0.0,    0.1,    0.0,    0.0,   -0.0,   -0.0,   -0.1,   -0.0,    0.0,    0.1,    0.1,    0.1,   -0.0,    0.0,   -0.1,   -0.0,    0.0,   -0.0,   -0.1,   -0.1,    0.1,    0.1,    0.0,    0.0,    0.1,    0.0,   -0.0,   -0.1,   -0.1,   -0.1,    0.0,    0.0,   -0.1,    0.2,   -0.2,    0.1,    0.0,  999.0,  999.0,  999.0,  999.0,  999.0,  999.0
2013/05/08 12:50,  999.0,  999.0,   -0.0,    0.0,   -0.0,    0.1,    0.0,   -0.1,   -0.0,    0.1,    0.1,    0.1,    0.1,   -0.0,    0.0,   -0.0,   -0.0,   -0.1,   -0.0,    0.0,   -0.1,   -0.0,   -0.0,   -0.0,   -0.1,   -0.1,    0.0,    0.0,   -0.1,    0.0,   -0.0,    0.0,    0.0,    0.0,    0.0,    0.0,    0.1,    0.0,   -0.0,    0.1,    0.1,   -0.0,   -0.0,   -0.0,   -0.0,    0.0,    0.1,   -0.0,    0.0,    0.0,   -0.1,   -0.1,   -0.0,   -0.1,    0.0,    0.1,    0.1,    0.2,    0.1,    0.0,    0.0,   -0.0,    0.0,    0.1,    0.1,   -0.0,   -0.1,    0.0,   -0.1,   -0.0,   -0.0,   -0.1,    0.0,   -0.1,   -0.1,  999.0,  999.0,  999.0,  999.0,  999.0
2013/05/08 13:00,  999.0,  999.0,   -0.0,   -0.0,   -0.1,    0.1,    0.0,   -0.0,   -0.0,   -0.0,    0.0,   -0.0,   -0.0,   -0.0,   -0.0,   -0.1,   -0.0,    0.0,   -0.1,   -0.0,   -0.0,   -0.0,    0.0,    0.0,    0.0,    0.1,   -0.0,   -0.0,    0.0,    0.0,   -0.0,   -0.0,   -0.0,   -0.0,    0.0,   -0.0,   -0.1,   -0.0,   -0.0,   -0.1,    0.0,   -0.0,    0.0,   -0.0,   -0.0,   -0.1,   -0.0,    0.0,    0.0,   -0.0,    0.1,    0.1,    0.0,    0.0,   -0.0,   -0.0,   -0.0,   -0.0,   -0.0,   -0.0,   -0.1,    0.1,    0.0,   -0.1,   -0.0,    0.1,    0.0,   -0.1,   -0.0,   -0.0,   -0.0,   -0.0,   -0.2,    0.0,   -0.0,  999.0,  999.0,  999.0,  999.0,  999.0
2013/05/08 13:10,  999.0,  999.0,    0.0,    0.1,    0.0,   -0.0,   -0.0,   -0.1,    0.1,    0.0,   -0.0,    0.0,    0.0,    0.0,    0.0,   -0.0,   -0.0,    0.0,    0.0,   -0.1,    0.0,    0.0,    0.1,   -0.0,   -0.0,    0.1,    0.1,    0.0,    0.0,    0.0,    0.1,    0.0,   -0.0,    0.1,   -0.0,   -0.0,   -0.0,   -0.1,   -0.1,    0.0,   -0.0,    0.0,    0.1,    0.1,    0.1,    0.0,   -0.0,    0.0,    0.0,    0.0,    0.1,    0.0,    0.0,   -0.0,    0.0,    0.1,    0.0,   -0.0,    0.0,    0.0,    0.0,    0.0,    0.1,    0.1,    0.0,    0.0,   -0.1,    0.0,   -0.1,    0.1,    0.0,    0.2,    0.1,    0.0,    0.0,   -0.2,  999.0,  999.0,  999.0,  999.0
2013/05/08 13:20,  999.0,  999.0,    0.0,    0.0,    0.0,    0.0,   -0.0,    0.0,   -0.0,   -0.1,   -0.0,    0.0,   -0.0,    0.0,   -0.0,    0.0,    0.0,    0.0,    0.0,   -0.0,   -0.1,    0.0,    0.0,    0.0,    0.0,    0.1,    0.0,   -0.0,    0.0,   -0.0,    0.1,    0.0,   -0.0,   -0.1,    0.0,    0.0,    0.0,   -0.0,    0.1,    0.0,   -0.0,    0.0,   -0.0,    0.1,   -0.0,   -0.0,    0.0,   -0.0,   -0.0,    0.0,   -0.0,    0.1,    0.1,    0.0,    0.0,   -0.1,   -0.1,   -0.0,    0.0,   -0.1,   -0.0,   -0.0,   -0.0,   -0.0,    0.2,    0.0,   -0.0,    0.0,    0.0,   -0.0,   -0.1,    0.1,   -0.0,    0.0,    0.1,  999.0,  999.0,  999.0,  999.0,  999.0
2013/05/08 13:30,  999.0,  999.0,    0.1,   -0.0,    0.0,    0.1,    0.1,   -0.1,    0.0,   -0.0,   -0.1,    0.0,    0.1,    0.0,    0.1,    0.0,   -0.0,   -0.0,   -0.1,    0.0,   -0.0,    0.0,    0.0,    0.1,    0.1,    0.1,    0.0,    0.0,   -0.0,    0.1,    0.1,    0.1,    0.0,    0.1,   -0.0,    0.0,   -0.0,    0.0,    0.0,    0.0,   -0.0,    0.0,    0.1,    0.1,    0.1,    0.1,   -0.0,   -0.0,    0.0,    0.0,   -0.1,    0.0,   -0.0,   -0.1,   -0.0,   -0.0,    0.1,   -0.0,    0.0,    0.0,    0.0,    0.0,    0.1,    0.0,   -0.0,    0.0,   -0.0,   -0.0,    0.2,    0.2,   -0.0,    0.1,   -0.1,   -0.1,    0.0,   -0.8,  999.0,  999.0,  999.0,  999.0
2013/05/08 13:40,  999.0,  999.0,    0.1,   -0.1,    0.0,   -0.0,   -0.0,   -0.0,    0.0,    0.1,    0.0,   -0.0,    0.0,   -0.1,   -0.0,   -0.0,   -0.0,   -0.0,   -0.0,   -0.0,   -0.1,   -0.0,    0.1,    0.1,    0.1,   -0.0,    0.1,    0.0,    0.0,   -0.0,   -0.1,   -0.1,    0.0,    0.0,   -0.1,   -0.0,    0.0,   -0.0,   -0.1,   -0.0,    0.0,    0.0,   -0.0,   -0.1,    0.0,    0.0,    0.0,   -0.0,    0.0,    0.0,    0.0,    0.0,    0.1,   -0.0,    0.0,    0.1,   -0.0,    0.1,    0.0,   -0.0,    0.1,    0.0,   -0.1,    0.0,    0.1,    0.1,    0.0,    0.1,   -0.0,  999.0,    0.1,    0.0,    0.1,    0.1,    0.1,  999.0,  999.0,  999.0,  999.0,  999.0
2013/05/08 13:50,  999.0,  999.0,   -0.0,   -0.1,   -0.0,    0.1,   -0.0,   -0.1,    0.0,    0.0,   -0.0,    0.1,   -0.0,   -0.1,    0.0,    0.0,   -0.0,   -0.1,    0.0,    0.0,    0.0,    0.0,    0.0,    0.1,    0.0,    0.0,   -0.0,    0.1,   -0.1,   -0.0,    0.1,    0.0,    0.0,    0.0,   -0.1,    0.0,    0.1,   -0.0,    0.0,    0.1,   -0.0,   -0.1,   -0.1,    0.0,   -0.0,    0.0,   -0.0,    0.0,   -0.0,    0.0,    0.0,    0.0,   -0.2,    0.1,   -0.1,    0.0,   -0.0,   -0.0,   -0.1,    0.0,   -0.0,   -0.0,   -0.0,    0.0,   -0.0,   -0.0,   -0.0,   -0.0,    0.0,    0.2,    0.1,   -0.3,    0.1,    0.1,   -0.3,   -0.4,    0.1,  999.0,  999.0,   -0.2
2013/05/08 14:00,  999.0,  999.0,    0.0,   -0.0,    0.1,   -0.1,    0.0,   -0.0,    0.1,    0.1,    0.1,   -0.0,    0.0,   -0.0,   -0.0,   -0.1,   -0.0,   -0.1,   -0.0,    0.0,   -0.1,   -0.0,    0.0,    0.1,    0.0,    0.1,    0.2,   -0.0,   -0.0,   -0.0,   -0.0,    0.1,    0.0,   -0.0,   -0.1,    0.0,   -0.1,   -0.1,   -0.1,    0.0,    0.0,   -0.1,   -0.0,   -0.0,   -0.2,   -0.1,   -0.0,   -0.0,    0.0,    0.0,   -0.0,   -0.0,   -0.1,    0.0,    0.0,    0.0,   -0.0,   -0.1,   -0.0,    0.1,    0.0,    0.1,   -0.0,   -0.0,    0.0,    0.0,   -0.0,   -0.0,    0.1,   -0.1,   -0.0,   -0.2,    0.1,   -0.0,    0.1,   -0.3,    0.0,  999.0,  999.0,  999.0
2013/05/08 14:10,  999.0,  999.0,    0.0,   -0.1,   -0.1,   -0.0,   -0.1,   -0.0,    0.0,   -0.0,    0.1,  999.0,    0.1,   -0.1,   -0.1,    0.0,    0.0,    0.0,   -0.0,    0.0,   -0.1,   -0.0,    0.0,    0.2,    0.0,   -0.1,   -0.0,    0.0,   -0.0,    0.1,    0.0,    0.1,   -0.1,   -0.1,   -0.0,    0.1,    0.1,   -0.1,    0.0,    0.1,    0.1,    0.0,    0.0,   -0.0,    0.0,   -0.0,   -0.0,   -0.1,    0.0,   -0.0,    0.0,   -0.1,    0.0,    0.0,    0.1,   -0.0,   -0.0,   -0.0,    0.0,    0.0,    0.1,    0.0,   -0.1,    0.1,   -0.0,   -0.0,   -0.0,   -0.1,   -0.0,    0.0,   -0.1,   -0.1,   -0.0,   -0.2,    0.0,  999.0,  999.0,  999.0,  999.0,  999.0
2013/05/08 14:20,  999.0,  999.0,    0.1,   -0.1,   -0.1,    0.0,    0.1,  999.0,  999.0,   -0.1,  999.0,   -0.1,  999.0,   -0.0,    0.1,    0.1,  999.0,   -0.1,  999.0,   -0.0,   -0.1,   -0.1,    0.1,    0.1,    0.0,    0.1,    0.0,    0.1,   -0.0,   -0.1,   -0.0,    0.0,    0.1,   -0.1,    0.1,    0.0,    0.0,   -0.0,   -0.0,   -0.0,   -0.0,    0.0,    0.1,   -0.1,   -0.1,   -0.1,    0.0,   -0.0,    0.0,   -0.0,    0.2,    0.0,   -0.0,    0.0,   -0.1,   -0.2,   -0.1,   -0.2,    0.1,    0.2,    0.0,    0.0,    0.1,    0.0,    0.0,    0.0,    0.1,   -0.1,    0.1,   -0.2,    0.1,    0.0,    0.1,   -0.1,   -0.3,  999.0,    0.3,  999.0,  999.0,  999.0
2013/05/08 14:30,  999.0,  999.0,   -0.1,    0.1,    0.0,   -0.0,   -0.0,   -0.0,    0.1,    0.1,    0.3,    0.4,    0.3,    0.1,    0.2,   -0.0,   -0.0,   -0.0,  999.0,  999.0,  999.0,   -0.0,    0.3,    0.1,    0.1,    0.1,   -0.1,    0.2,   -0.0,    0.2,   -0.1,    0.0,    0.1,    0.1,    0.2,    0.1,    0.1,    0.4,    0.8,    0.8,    0.2,    0.1,    0.1,    0.1,   -0.0,   -0.0,   -0.1,    0.0,    0.0,    0.0,    0.0,   -0.0,   -0.2,   -0.1,   -0.2,   -0.1,   -0.1,   -0.2,   -0.0,    0.1,    0.0,   -0.1,    0.2,    0.2,    0.1,    0.1,    0.1,    0.1,    0.1,   -0.2,   -0.2,    0.4,    0.1,    0.2,    0.2,    0.2,  999.0,  999.0,  999.0,  999.0
2013/05/08 14:40,  999.0,  999.0,    0.0,    0.2,    0.0,   -0.1,    0.1,    0.1,  999.0,   -0.1,    0.2,    0.4,    0.3,    0.3,   -0.4,    0.0,    0.1,    0.0,   -0.1,    0.1,    0.1,    0.5,    0.3,    0.5,   -0.0,    0.0,   -0.1,   -0.1,    0.0,   -0.0,   -0.1,   -0.1,   -0.0,    0.0,    0.2,    0.1,    0.4,    1.1,    2.4,    1.7,    0.9,    0.2,    0.1,    0.1,    0.1,   -0.1,    0.0,   -0.0,   -0.0,    0.0,   -0.0,    0.0,   -0.0,   -0.1,   -0.1,   -0.0,    0.1,   -0.1,    0.0,   -0.2,   -0.0,   -0.3,    0.0,    0.0,  999.0,   -0.0,   -0.0,   -0.1,   -0.0,   -0.2,    0.0,    0.0,   -0.0,   -0.0,   -0.1,  999.0,  999.0,  999.0,  999.0,  999.0
2013/05/08 14:50,  999.0,  999.0,    0.1,    0.1,    0.0,    0.0,   -0.0,    0.1,  999.0,    0.1,    0.1,    0.7,    0.7,    0.6,    0.1,    0.1,    0.5,    0.6,   -0.0,   -0.1,    0.3,    0.4,    0.6,    0.4,    0.4,   -0.1,    0.1,    0.1,    0.1,    0.0,    0.1,  999.0,    0.0,    0.0,    0.1,    0.2,    0.2,    0.5,    1.4,    0.7,    0.2,    0.1,    0.1,    0.0,    0.1,    0.0,    0.0,    0.2,    0.1,    0.2,   -0.0,   -0.1,    0.1,    0.1,    0.0,    0.2,    0.1,    0.0,    0.1,    0.1,    0.1,   -0.1,    0.0,    0.1,   -0.1,    0.0,   -0.1,   -0.1,   -0.0,    0.1,   -0.0,   -0.0,   -0.0,   -0.0,  999.0,  999.0,   -0.4,  999.0,  999.0,    0.2
2013/05/08 15:00,  999.0,  999.0,    0.2,    0.0,   -0.0,   -0.1,    0.1,  999.0,    0.2,   -0.1,    0.3,    0.5,    0.4,    0.4,    0.6,    0.5,   -0.0,   -0.0,    0.1,    0.1,    0.2,    0.7,    0.6,    1.0,    0.4,    0.4,    0.3,    0.0,   -0.0,   -0.0,   -0.1,    0.1,    0.3,    0.2,    0.1,    0.0,   -0.0,    0.0,    0.2,    0.1,   -0.0,    0.0,    0.0,    0.0,   -0.0,    0.1,   -0.0,    0.0,   -0.0,   -0.0,   -0.1,   -0.1,    0.1,    0.0,    0.1,   -0.0,   -0.0,    0.1,   -0.0,   -0.1,    0.1,    0.2,    0.1,    0.1,   -0.0,   -0.2,    0.0,    0.1,   -0.0,    0.0,    0.2,   -0.0,   -0.1,    0.0,   -0.1,  999.0,  999.0,  999.0,  999.0,  999.0
2013/05/08 15:10,  999.0,  999.0,    0.1,    0.0,    0.1,    0.0,    0.1,    0.0,   -0.0,   -0.0,    0.1,    0.2,    0.2,    0.2,  999.0,   -0.0,  999.0,   -0.1,    0.1,    0.0,  999.0,    0.4,    0.7,    0.7,   -0.1,    0.2,    0.0,   -0.0,  999.0,    0.0,  999.0,   -0.0,   -0.0,    0.1,    0.0,   -0.0,   -0.2,   -0.3,   -0.1,   -0.1,   -0.1,    0.0,    0.1,   -0.2,    0.1,  999.0,  999.0,    0.0,    0.0,   -0.1,   -0.0,    0.1,    0.1,    0.0,   -0.1,   -0.0,   -0.1,   -0.1,   -0.3,   -0.0,   -0.0,    0.1,    0.2,    0.2,    0.1,    0.0,    0.2,   -0.1,   -0.0,    0.1,   -0.1,   -0.1,   -0.2,    0.0,    0.2,  999.0,  999.0,  999.0,  999.0,  999.0
2013/05/08 15:20,  999.0,  999.0,   -0.1,   -0.1,   -0.1,   -0.0,   -0.0,    0.2,    0.1,    0.1,    0.1,    0.1,    0.1,    0.3,    0.3,    0.0,   -0.1,   -0.1,    0.0,    0.0,    0.1,    0.1,    0.0,    0.1,    0.0,   -0.0,   -0.0,    0.1,   -0.0,    0.2,    0.0,   -0.0,    0.0,    0.1,   -0.1,   -0.2,   -0.1,   -0.1,   -0.4,   -0.2,   -0.2,   -0.2,   -0.1,    0.1,   -0.0,   -0.1,   -0.0,    0.1,    0.0,   -0.0,    0.0,    0.1,    0.1,    0.0,    0.0,    0.1,    0.1,   -0.2,   -0.1,    0.1,    0.0,   -0.0,   -0.0,   -0.1,    0.2,    0.1,   -0.1,   -0.1,    0.1,    0.1,   -0.0,    0.1,   -0.1,   -0.0,   -0.1,   -0.3,  999.0,  999.0,  999.0,  999.0
2013/05/08 15:30,  999.0,    0.0,    0.0,    0.2,    0.0,   -0.0,    0.1,  999.0,    0.0,    0.0,  999.0,   -0.0,    0.2,    0.3,  999.0,    0.2,  999.0,  999.0,  999.0,    0.1,   -0.0,    0.0,    0.1,    0.7,    0.4,    0.1,    0.2,    0.2,    0.6,    0.7,    0.3,    0.1,   -0.0,   -0.1,   -0.1,    0.1,    0.0,   -0.1,   -0.1,   -0.1,   -0.1,   -0.1,   -0.0,    0.0,   -0.1,   -0.1,   -0.1,    0.0,    0.1,    0.1,    0.2,    0.1,   -0.1,   -0.1,   -0.1,   -0.1,    0.1,   -0.0,   -0.2,   -0.0,    0.0,    0.0,    0.3,   -0.1,   -0.0,    0.2,    0.1,   -0.1,   -0.2,    0.3,  999.0,  999.0,   -0.1,    0.0,   -0.1,  999.0,  999.0,  999.0,  999.0,  999.0
2013/05/08 15:40,  999.0,  999.0,    0.1,    0.1,   -0.0,   -0.1,   -0.0,    0.2,    0.2,    0.0,   -0.7,   -0.3,    0.3,    0.3,    0.2,   -0.1,  999.0,   -0.1,  999.0,  999.0,  999.0,    0.6,    0.9,    1.5,    1.1,    0.6,    0.5,    0.8,    0.8,    0.5,    0.2,    0.1,   -0.0,   -0.1,    0.1,   -0.0,   -0.0,   -0.1,   -0.0,    0.1,    0.1,   -0.1,   -0.1,   -0.0,    0.1,    0.1,   -0.0,   -0.2,   -0.2,   -0.0,    0.0,   -0.0,   -0.0,    0.1,   -0.0,    0.0,   -0.0,   -0.1,    0.0,    0.1,    0.0,   -0.0,   -0.0,   -0.0,  999.0,    0.0,   -0.0,    0.0,   -0.1,   -0.2,  999.0,    0.0,   -0.1,  999.0,    0.3,   -0.1,  999.0,  999.0,  999.0,  999.0
2013/05/08 15:50,  999.0,  999.0,   -0.1,   -0.0,    0.0,   -0.2,    0.1,   -0.0,    0.2,    0.1,    0.3,    0.4,   -0.1,    0.1,    0.2,    0.4,  999.0,    0.0,  999.0,   -0.1,    0.4,    0.5,    0.8,    0.8,    0.2,    0.1,    0.2,   -0.0,    0.1,    0.1,   -0.1,    0.1,    0.1,   -0.0,    0.1,    0.1,    0.1,    0.1,    0.4,    0.2,   -0.0,   -0.1,   -0.2,    0.1,    0.3,    0.1,    0.0,    0.1,    0.0,    0.1,   -0.1,    0.0,    0.1,   -0.1,   -0.0,    0.1,   -0.1,   -0.0,   -0.1,   -0.0,    0.1,    0.1,   -0.0,    0.0,    0.1,   -0.1,    0.0,    0.0,    0.3,    0.2,    0.2,    0.4,  999.0,  999.0,   -0.1,  999.0,  999.0,  999.0,  999.0,  999.0
2013/05/08 16:00,  999.0,  999.0,   -0.0,   -0.0,    0.1,    0.0,   -0.1,    0.1,    0.1,    0.1,   -0.1,    0.1,   -0.1,    0.1,   -0.1,    0.2,  999.0,   -0.2,    0.1,    0.3,    0.1,    0.8,    0.5,    0.4,    0.6,    0.5,    0.4,   -0.2,    0.0,   -0.1,    0.0,    0.1,    0.0,   -0.0,   -0.1,    0.1,   -0.0,   -0.0,    0.1,    0.2,    0.1,    0.0,   -0.0,    0.1,    0.1,   -0.0,   -0.1,   -0.1,   -0.0,   -0.1,    0.0,   -0.1,   -0.1,   -0.1,   -0.1,    0.0,    0.0,   -0.1,    0.2,    0.0,    0.1,   -0.0,    0.1,   -0.0,    0.0,   -0.1,    0.0,   -0.0,    0.2,    0.2,   -0.1,   -0.0,  999.0,   -0.1,    0.2,  999.0,  999.0,  999.0,  999.0,  999.0
2013/05/08 16:10,  999.0,  999.0,   -0.1,   -0.1,    0.1,    0.0,   -0.0,  999.0,  999.0,    0.0,    0.0,    0.1,    0.1,    0.0,    0.0,  999.0,    0.4,  999.0,  999.0,  999.0,    0.3,    0.7,    0.6,    0.4,    0.1,    0.1,   -0.1,   -0.0,   -0.1,  999.0,    0.0,    0.1,    0.0,   -0.1,   -0.0,    0.1,    0.1,   -0.0,    0.1,    0.2,    0.0,   -0.1,    0.1,    0.1,    0.1,    0.2,    0.1,   -0.1,   -0.0,   -0.0,    0.1,   -0.1,   -0.1,   -0.0,    0.0,    0.1,    0.1,   -0.1,    0.1,   -0.0,   -0.0,   -0.2,   -0.1,    0.0,    0.0,    0.1,    0.1,   -0.2,    0.1,    0.0,   -0.1,   -0.0,   -0.2,    0.1,   -0.0,  999.0,  999.0,  999.0,  999.0,  999.0
2013/05/08 16:20,  999.0,  999.0,   -0.1,    0.0,    0.0,    0.0,    0.0,   -0.0,   -0.0,   -0.0,   -0.0,   -0.1,    0.2,    0.4,    0.1,  999.0,  999.0,    0.2,    0.2,    0.1,    0.2,    0.5,    0.6,    0.2,    0.2,    0.1,   -0.0,    0.2,   -0.0,   -0.0,    0.0,    0.0,    0.0,   -0.0,    0.3,    0.3,    0.1,    0.1,    0.0,    0.0,    0.0,   -0.0,    0.0,   -0.1,    0.0,    0.0,    0.1,   -0.0,    0.0,    0.0,    0.0,    0.0,   -0.0,   -0.1,    0.0,   -0.0,    0.1,    0.0,    0.0,    0.0,   -0.2,    0.1,   -0.0,    0.0,    0.1,   -0.1,   -0.0,    0.1,   -0.1,   -0.1,   -0.1,    0.2,   -0.1,   -0.3,   -0.2,   -0.2,  999.0,  999.0,  999.0,  999.0
2013/05/08 16:30,  999.0,  999.0,    0.1,    0.2,    0.3,    0.0,    0.2,   -0.0,   -0.1,   -0.1,    0.0,    0.5,    0.4,    0.1,  999.0,    0.1,  999.0,    0.0,    0.1,   -0.0,    0.3,    0.8,    1.0,    0.4,    0.2,   -0.0,    0.0,   -0.1,   -0.0,    0.2,    0.2,   -0.0,   -0.0,   -0.1,    0.3,    0.1,    0.2,    0.3,    0.2,    0.1,    0.0,    0.1,   -0.0,    0.0,    0.1,    0.1,   -0.1,    0.1,   -0.0,   -0.0,    0.0,    0.1,   -0.1,   -0.0,    0.1,   -0.1,   -0.0,   -0.0,    0.1,    0.0,    0.1,   -0.1,    0.2,    0.2,  999.0,    0.1,    0.0,   -0.1,   -0.1,    0.0,    0.2,    0.1,   -0.1,    0.0,    0.0,  999.0,  999.0,  999.0,  999.0,   -0.0
2013/05/08 16:40,  999.0,  999.0,    0.2,   -0.1,   -0.2,   -0.1,    0.0,   -0.0,   -0.0,   -0.1,   -0.2,    0.1,    0.1,    0.1,  999.0,    0.1,   -0.1,    0.0,   -0.2,   -0.1,    0.2,    0.6,    0.6,    0.3,    0.1,   -0.0,   -0.1,   -0.0,    0.1,    0.2,    0.5,    0.0,    0.0,    0.0,   -0.0,   -0.1,    0.0,   -0.0,   -0.0,   -0.1,   -0.1,    0.0,   -0.0,   -0.0,    0.0,    0.0,    0.0,    0.1,    0.0,    0.1,   -0.2,   -0.2,   -0.1,    0.0,    0.0,    0.0,    0.0,    0.1,    0.0,    0.0,   -0.1,   -0.0,    0.1,    0.0,  999.0,   -0.0,   -0.1,    0.0,   -0.0,   -0.1,  999.0,    0.3,    0.1,    0.2,   -0.1,  999.0,  999.0,  999.0,  999.0,  999.0
2013/05/08 16:50,  999.0,  999.0,    0.1,    0.1,    0.1,   -0.0,    0.1,   -0.0,   -0.0,   -0.0,   -0.1,   -0.0,   -0.0,  999.0,   -0.2,   -0.1,   -0.0,   -0.1,  999.0,    0.0,   -0.0,    0.9,    0.7,    0.7,    0.0,    0.1,    0.1,    0.4,    0.1,    0.2,    0.2,    0.0,   -0.1,   -0.0,    0.0,    0.1,    0.1,   -0.1,    0.1,   -0.1,   -0.0,   -0.0,    0.1,    0.1,   -0.0,  999.0,    0.1,   -0.0,    0.1,   -0.0,    0.0,   -0.1,    0.0,   -0.1,   -0.1,   -0.1,   -0.0,    0.1,    0.0,    0.2,    0.0,   -0.0,    0.1,   -0.2,   -0.2,    0.1,    0.1,   -0.1,    0.1,    0.2,   -0.0,   -0.4,  999.0,   -0.2,   -0.1,  999.0,  999.0,  999.0,  999.0,  999.0
2013/05/08 17:00,  999.0,  999.0,   -0.0,    0.0,  999.0,    0.0,   -0.1,    0.1,   -0.2,    0.1,   -0.2,   -0.1,    0.1,    0.1,  999.0,  999.0,    0.1,  999.0,    0.1,    0.1,    0.7,    0.4,    0.8,    1.2,    0.4,    0.4,    0.0,    0.1,   -0.0,   -0.1,    0.1,    0.1,    0.0,    0.0,    0.1,    0.1,    0.1,    0.0,    0.0,   -0.0,   -0.0,   -0.1,   -0.1,   -0.0,   -0.0,   -0.1,    0.1,    0.0,    0.0,    0.0,    0.0,    0.0,    0.0,   -0.1,   -0.0,   -0.0,    0.0,   -0.1,    0.1,   -0.0,   -0.0,   -0.0,    0.0,    0.0,   -0.0,   -0.0,   -0.1,    0.1,    0.1,    0.0,    0.2,    0.1,  999.0,  999.0,   -0.0,   -0.5,  999.0,  999.0,  999.0,  999.0
2013/05/08 17:10,  999.0,  999.0,    0.0,    0.0,    0.1,    0.0,    0.1,    0.1,    0.1,   -0.0,    0.0,  999.0,    0.0,  999.0,  999.0,  999.0,   -0.0,  999.0,  999.0,   -0.0,   -0.0,    0.1,    0.2,  999.0,    0.1,   -0.0,    0.1,    0.0,   -0.0,    0.1,   -0.0,   -0.0,    0.1,    0.0,    0.2,    0.1,    0.2,    0.1,    0.0,   -0.1,   -0.2,   -0.1,   -0.0,   -0.1,   -0.1,   -0.0,   -0.0,    0.0,   -0.0,    0.1,    0.0,   -0.0,   -0.1,    0.0,   -0.0,    0.0,   -0.1,    0.2,   -0.1,   -0.0,   -0.0,    0.0,   -0.1,    0.1,    0.1,    0.1,   -0.1,    0.1,   -0.0,   -0.2,    0.1,    0.0,    0.0,    0.0,    0.2,  999.0,  999.0,  999.0,  999.0,  999.0
2013/05/08 17:20,  999.0,  999.0,   -0.0,   -0.1,   -0.0,    0.1,   -0.0,   -0.1,  999.0,    0.1,   -0.1,  999.0,  999.0,  999.0,  999.0,   -0.0,   -0.1,    0.0,    0.0,    0.0,    0.1,   -0.0,   -0.0,    0.0,   -0.0,   -0.0,   -0.1,    0.1,    0.0,    0.1,    0.0,    0.1,    0.0,    0.0,   -0.0,    0.1,   -0.1,   -0.0,    0.2,    0.2,   -0.0,   -0.1,   -0.0,    0.0,    0.0,    0.0,    0.0,   -0.1,   -0.0,   -0.0,    0.0,   -0.2,    0.0,    0.1,    0.0,   -0.2,   -0.1,    0.0,    0.0,   -0.1,   -0.1,   -0.0,    0.0,   -0.0,   -0.0,    0.0,    0.4,   -0.0,   -0.1,   -0.0,  999.0,   -0.1,    0.2,    0.0,   -0.0,  999.0,  999.0,  999.0,  999.0,  999.0
2013/05/08 17:30,  999.0,  999.0,   -0.1,  999.0,  999.0,    0.1,    0.1,    0.2,    0.1,   -0.0,  999.0,  999.0,   -0.2,    0.0,   -0.0,   -0.1,  999.0,   -0.1,   -0.1,   -0.0,    0.0,    0.0,    0.1,   -0.0,   -0.1,    0.1,    0.0,    0.1,    0.0,   -0.0,    0.0,    0.0,    0.1,    0.1,   -0.1,   -0.0,    0.1,    0.1,   -0.1,    0.0,   -0.1,    0.0,    0.1,    0.1,   -0.1,    0.0,   -0.0,   -0.0,   -0.0,   -0.2,   -0.1,    0.0,    0.1,   -0.0,   -0.1,    0.1,    0.1,   -0.2,    0.1,   -0.1,    0.1,    0.1,   -0.0,    0.1,    0.0,   -0.2,   -0.2,    0.1,  999.0,    0.0,  999.0,    0.4,    0.0,   -0.1,    0.1,  999.0,  999.0,  999.0,  999.0,  999.0
2013/05/08 17:40,  999.0,   -0.0,    0.0,   -0.0,    0.2,    0.1,   -0.1,   -0.1,    0.1,    0.1,   -0.0,   -0.1,   -0.1,  999.0,  999.0,  999.0,  999.0,  999.0,  999.0,    0.0,   -0.1,    0.0,    0.0,    0.0,   -0.0,    0.0,    0.1,    0.2,    0.0,   -0.1,   -0.1,    0.1,    0.0,   -0.0,   -0.0,    0.0,    0.0,   -0.0,   -0.1,   -0.1,   -0.1,   -0.1,    0.0,    0.0,   -0.0,   -0.0,   -0.0,   -0.2,   -0.0,    0.1,    0.1,    0.0,    0.1,    0.1,   -0.1,    0.1,   -0.2,    0.1,    0.2,    0.0,   -0.2,   -0.2,   -0.1,    0.1,   -0.0,   -0.1,    0.0,    0.1,    0.0,   -0.0,   -0.0,    0.0,   -0.0,   -0.2,   -0.0,  999.0,  999.0,  999.0,  999.0,  999.0
2013/05/08 17:50,  999.0,  999.0,   -0.1,    0.2,  999.0,   -0.2,   -0.1,   -0.1,   -0.1,   -0.1,   -0.1,   -0.1,  999.0,  999.0,   -0.0,   -0.1,  999.0,  999.0,    0.0,   -0.1,    0.1,    0.0,    0.1,    0.0,    0.0,    0.0,   -0.1,  999.0,    0.0,    0.1,  999.0,    0.0,    0.0,    0.0,    0.0,   -0.1,    0.0,    0.1,   -0.1,   -0.1,   -0.1,   -0.0,   -0.1,   -0.1,    0.2,    0.0,   -0.0,   -0.0,    0.2,    0.0,    0.1,   -0.1,   -0.0,    0.2,    0.0,    0.1,    0.3,   -0.0,   -0.0,   -0.1,   -0.3,   -0.2,    0.1,    0.1,   -0.1,   -0.1,   -0.0,    0.2,  999.0,   -0.0,   -0.2,   -0.2,    0.1,    0.1,   -0.3,   -0.3,  999.0,  999.0,  999.0,  999.0
2013/05/08 18:00,  999.0,  999.0,   -0.1,   -0.0,    0.0,    0.1,   -0.0,    0.1,  999.0,   -0.1,   -0.1,    0.1,  999.0,   -0.0,    0.1,    0.1,   -0.1,   -0.0,    0.1,   -0.0,    0.0,   -0.1,    0.1,    0.0,    0.0,   -0.1,    0.2,   -0.0,   -0.0,    0.1,   -0.0,   -0.1,    0.0,    0.0,   -0.0,   -0.0,   -0.1,   -0.1,    0.0,   -0.0,   -0.2,    0.0,   -0.0,   -0.0,   -0.0,   -0.0,    0.1,   -0.0,    0.1,    0.1,    0.0,   -0.1,    0.0,   -0.0,   -0.1,   -0.1,   -0.2,   -0.1,    0.1,   -0.1,   -0.1,   -0.3,    0.1,    0.1,    0.0,    0.1,   -0.3,    0.0,   -0.2,   -0.0,  999.0,    0.3,   -0.1,    0.0,   -0.2,  999.0,  999.0,  999.0,  999.0,  999.0
2013/05/08 18:10,  999.0,  999.0,   -0.0,   -0.1,   -0.1,   -0.0,  999.0,    0.1,    0.0,    0.0,  999.0,   -0.2,    0.1,  999.0,  999.0,   -0.0,  999.0,  999.0,   -0.1,   -0.0,    0.1,   -0.1,    0.1,    0.0,    0.0,    0.0,    0.1,    0.2,    0.0,    0.0,   -0.1,    0.1,    0.0,   -0.0,    0.0,   -0.0,    0.0,    0.0,    0.2,   -0.0,   -0.1,   -0.0,   -0.0,   -0.0,    0.0,    0.0,   -0.0,    0.1,    0.0,    0.0,   -0.1,    0.1,   -0.0,   -0.0,   -0.0,    0.1,   -0.1,    0.1,    0.2,    0.1,    0.1,    0.1,    0.2,    0.1,    0.1,   -0.0,    0.1,    0.0,  999.0,    0.0,   -0.2,   -0.1,   -0.1,   -0.1,    0.0,  999.0,  999.0,  999.0,  999.0,  999.0
2013/05/08 18:20,  999.0,  999.0,   -0.1,    0.1,    0.0,   -0.0,   -0.1,  999.0,  999.0,   -0.1,    0.0,  999.0,   -0.1,  999.0,    0.0,   -0.0,    0.0,  999.0,    0.0,    0.0,   -0.0,    0.0,    0.2,    0.0,    0.1,    0.0,   -0.0,   -0.0,   -0.0,   -0.1,   -0.0,   -0.0,   -0.0,   -0.0,   -0.1,   -0.0,   -0.0,    0.1,    0.1,    0.1,   -0.0,   -0.0,    0.0,    0.0,    0.0,    0.0,   -0.1,   -0.1,    0.1,    0.1,    0.1,    0.0,    0.0,    0.1,    0.0,   -0.2,   -0.2,    0.2,   -0.1,   -0.0,    0.1,    0.1,    0.1,    0.0,    0.3,    0.1,  999.0,  999.0,  999.0,    0.4,   -0.0,   -0.1,   -0.0,   -0.1,   -0.1,  999.0,  999.0,  999.0,  999.0,  999.0
2013/05/08 18:30,  999.0,    0.2,    0.1,    0.1,   -0.0,   -0.1,    0.0,  999.0,    0.0,    0.0,   -0.0,    0.1,  999.0,    0.0,   -0.1,   -0.1,   -0.0,    0.0,   -0.0,   -0.0,   -0.1,    0.1,    0.0,    0.0,    0.0,    0.1,   -0.0,    0.1,    0.1,   -0.0,    0.1,    0.0,    0.0,    0.0,   -0.1,   -0.1,   -0.0,   -0.1,    0.1,    0.0,   -0.0,   -0.2,    0.0,    0.0,   -0.1,   -0.0,    0.1,    0.1,    0.1,   -0.1,    0.0,    0.0,    0.1,   -0.1,   -0.0,    0.0,   -0.1,    0.0,   -0.1,   -0.1,    0.1,   -0.1,   -0.0,   -0.0,   -0.1,    0.1,   -0.0,   -0.2,   -0.1,   -0.2,   -0.2,    0.2,   -0.2,   -0.1,   -0.1,  999.0,  999.0,  999.0,  999.0,  999.0
2013/05/08 18:40,  999.0,    0.1,    0.0,    0.2,   -0.1,   -0.0,   -0.0,    0.0,   -0.0,  999.0,   -0.0,   -0.1,    0.2,  999.0,   -0.0,   -0.0,   -0.1,  999.0,    0.0,    0.1,   -0.0,    0.0,    0.1,    0.1,    0.0,    0.0,    0.1,   -0.1,    0.0,   -0.1,   -0.1,    0.0,   -0.0,   -0.0,    0.0,    0.0,    0.1,    0.0,    0.1,    0.1,   -0.1,   -0.0,   -0.0,   -0.0,    0.1,    0.2,    0.0,   -0.0,   -0.0,    0.0,    0.1,   -0.0,    0.1,   -0.0,   -0.0,    0.1,   -0.1,    0.2,   -0.1,    0.1,   -0.0,    0.1,   -0.1,   -0.0,    0.0,   -0.2,    0.1,    0.2,   -0.0,    0.3,    0.1,    0.4,   -0.1,    0.0,    0.1,  999.0,  999.0,  999.0,  999.0,  999.0
2013/05/08 18:50,  999.0,  999.0,    0.0,    0.1,    0.1,    0.1,    0.0,   -0.1,   -0.0,   -0.1,    0.0,   -0.0,  999.0,    0.0,  999.0,    0.0,  999.0,   -0.0,    0.1,    0.1,   -0.0,   -0.1,   -0.0,    0.0,    0.1,    0.0,   -0.1,    0.1,   -0.1,    0.1,    0.0,   -0.0,    0.1,    0.1,    0.1,   -0.0,   -0.1,   -0.1,    0.1,   -0.0,   -0.1,    0.0,    0.1,    0.0,   -0.1,   -0.0,    0.1,   -0.0,    0.0,   -0.0,   -0.1,    0.0,   -0.0,    0.1,    0.0,   -0.0,   -0.1,   -0.0,    0.1,    0.1,    0.1,   -0.1,    0.0,    0.1,   -0.1,   -0.1,   -0.1,    0.2,   -0.1,    0.1,   -0.0,   -0.1,   -0.1,    0.1,    0.2,  999.0,  999.0,  999.0,  999.0,  999.0
2013/05/08 19:00,  999.0,  999.0,   -0.0,   -0.0,   -0.2,    0.0,    0.0,   -0.1,    0.0,   -0.0,    0.0,  999.0,    0.1,  999.0,   -0.1,  999.0,   -0.1,    0.1,   -0.2,   -0.0,    0.0,    0.0,    0.0,    0.0,    0.0,   -0.0,    0.1,    0.0,   -0.0,    0.0,   -0.0,    0.1,    0.0,   -0.1,    0.1,   -0.1,   -0.0,    0.1,    0.1,    0.1,   -0.1,   -0.2,   -0.1,    0.1,   -0.0,   -0.1,    0.0,   -0.0,    0.1,   -0.0,    0.1,   -0.0,   -0.0,   -0.1,   -0.1,   -0.0,   -0.1,    0.0,   -0.0,   -0.1,   -0.1,   -0.1,    0.3,    0.0,   -0.1,   -0.2,    0.0,   -0.0,   -0.3,   -0.3,   -0.1,   -0.1,    0.1,   -0.0,    0.1,  999.0,  999.0,  999.0,  999.0,  999.0
2013/05/08 19:10,  999.0,  999.0,   -0.0,   -0.0,   -0.2,    0.0,    0.1,   -0.0,   -0.0,    0.1,   -0.2,  999.0,  999.0,   -0.1,  999.0,  999.0,  999.0,  999.0,  999.0,    0.1,    0.0,   -0.0,    0.2,  999.0,  999.0,   -0.0,    0.0,    0.0,    0.1,    0.2,   -0.0,   -0.1,    0.1,    0.1,    0.1,    0.1,   -0.1,   -0.0,   -0.0,    0.0,   -0.0,    0.0,    0.0,    0.1,    0.1,    0.0,   -0.1,   -0.1,    0.1,    0.1,   -0.1,    0.1,    0.1,   -0.1,   -0.1,    0.0,    0.0,    0.1,   -0.1,    0.2,   -0.0,    0.0,    0.3,    0.1,    0.1,  999.0,   -0.1,   -0.0,    0.2,   -0.0,    0.1,    0.1,    0.1,    0.1,    0.2,  999.0,  999.0,  999.0,  999.0,  999.0
2013/05/08 19:20,  999.0,  999.0,  999.0,   -0.3,  999.0,   -0.1,  999.0,    0.3,  999.0,    0.1,  999.0,    0.0,   -0.2,    0.1,  999.0,    0.0,  999.0,  999.0,  999.0,    0.1,    0.1,    0.3,    0.4,  999.0,    0.1,    0.1,    0.2,    0.0,    0.0,    0.0,   -0.0,    0.1,    0.1,    0.0,    0.2,    0.1,    0.1,   -0.0,    0.3,    0.3,   -0.1,   -0.0,   -0.2,    0.0,    0.0,   -0.1,    0.0,   -0.0,    0.1,    0.1,   -0.0,    0.1,   -0.1,    0.2,   -0.2,   -0.1,    0.1,    0.0,    0.1,    0.1,   -0.1,    0.0,    0.2,    0.1,    0.0,   -0.1,    0.0,   -0.0,    0.2,    0.0,    0.2,   -0.3,   -0.1,   -0.0,   -0.0,  999.0,  999.0,  999.0,  999.0,  999.0
2013/05/08 19:30,  999.0,  999.0,   -0.0,   -0.1,    0.3,    0.0,    0.1,   -0.0,   -0.2,   -0.1,   -0.4,   -0.4,   -0.5,   -0.6,   -0.8,   -0.5,   -0.1,    0.1,   -0.2,   -0.2,    0.1,    0.2,    0.3,    0.5,  999.0,    0.1,    0.1,    0.0,    0.1,   -0.0,    0.0,    0.1,    0.1,    0.3,   -0.2,    0.0,   -0.1,    0.1,    0.1,    0.3,    0.1,    0.1,   -0.1,    0.0,    0.1,   -0.2,   -0.1,    0.0,   -0.0,    0.2,    0.2,    0.3,    0.1,   -0.1,   -0.1,   -0.0,    0.1,   -0.1,   -0.1,   -0.2,  999.0,   -0.1,   -0.0,    0.3,   -0.1,  999.0,   -0.4,    0.0,   -0.3,   -0.2,  999.0,   -0.1,   -0.1,    0.0,   -0.1,  999.0,  999.0,  999.0,  999.0,  999.0
2013/05/08 19:40,  999.0,  999.0,    0.1,    0.1,  999.0,  999.0,   -0.2,    0.2,   -0.0,   -0.1,   -0.1,   -0.1,   -0.2,   -0.4,   -0.4,   -0.3,   -0.0,   -0.2,   -0.1,   -0.3,    0.1,    0.6,    0.1,    0.4,  999.0,    0.0,    0.2,    0.1,    0.2,    0.3,    0.2,    0.1,    0.0,    0.2,    0.2,    1.0,    0.1,    0.1,   -0.2,   -0.0,   -0.0,   -0.3,    0.1,    0.3,    0.1,   -0.1,   -0.1,    0.0,    0.1,   -0.0,    0.1,    0.4,   -0.1,    0.2,    0.3,  999.0,   -0.0,    0.2,   -0.1,    0.1,    0.2,    0.2,   -0.3,   -0.2,    0.1,    0.1,   -0.2,   -0.2,   -0.1,    0.1,   -0.2,   -0.1,   -0.2,    0.1,   -0.1,  999.0,  999.0,  999.0,  999.0,  999.0
2013/05/08 19:50,  999.0,    0.1,   -0.2,    0.2,  999.0,    0.0,  999.0,    0.1,   -0.2,   -0.3,   -0.3,   -0.2,   -0.9,   -0.5,    5.2,    4.9,    2.3,   -0.1,    0.2,   -0.1,  999.0,   -0.0,   -0.1,    0.2,    0.2,  999.0,    0.4,    0.5,    0.2,    0.2,    0.4,    0.3,    0.2,  999.0,    0.7,    0.6,   -0.1,  999.0,   -0.0,  999.0,   -0.1,  999.0,  999.0,  999.0,  999.0,  999.0,    0.1,    0.1,   -0.2,   -0.4,   -0.4,   -0.4,   -0.5,   -0.2,   -0.3,    0.0,  999.0,    0.3,  999.0,  999.0,   -0.2,  999.0,  999.0,  999.0,  999.0,   -0.4,  999.0,    0.1,  999.0,  999.0,  999.0,   -0.3,   -0.3,  999.0,  999.0,  999.0,  999.0,  999.0,  999.0,  999.0
2013/05/08 20:00,  999.0,    0.5,    0.8,    2.6,    0.4,    0.5,    0.2,   -0.0,    0.0,   -0.2,   -0.3,   -0.3,   -0.8,   -1.3,   -0.7,    1.2,    1.4,   -0.2,   -0.3,    1.0,    0.9,    0.1,    0.0,    0.1,    0.3,  999.0,  999.0,    0.3,   -0.1,    0.2,    0.4,   -0.7,   -0.1,    0.3,  999.0,   -0.0,   -0.2,   -0.0,    0.1,    0.1,   -0.0,  999.0,   -0.1,   -0.3,  999.0,   -0.3,    0.0,   -0.2,   -0.1,    0.0,  999.0,   -0.1,  999.0,  999.0,  999.0,  999.0,  999.0,  999.0,   -0.0,  999.0,  999.0,  999.0,  999.0,  999.0,  999.0,  999.0,    0.8,    0.1,   -0.5,    0.1,  999.0,    0.1,  999.0,    0.1,  999.0,  999.0,  999.0,  999.0,  999.0,  999.0
2013/05/08 20:10,  999.0,  999.0,  999.0,  999.0,  999.0,  999.0,   -0.2,   -0.1,    0.1,    0.1,    0.4,   -0.1,   -0.3,   -0.7,    1.2,    0.7,    0.8,   -0.4,   -0.3,   -0.1,   -0.1,   -0.1,    0.3,    0.5,    0.1,    0.2,    0.2,   -0.1,   -0.1,   -0.1,    0.1,   -0.4,  999.0,   -0.5,   -0.9,   -0.2,    0.0,    0.3,    0.2,   -0.1,  999.0,   -0.3,    0.2,  999.0,  999.0,   -0.3,   -0.4,   -0.3,   -0.1,    0.1,    0.1,  999.0,  999.0,   -0.1,    0.1,    0.1,   -0.3,   -0.5,  999.0,  999.0,    0.1,   -0.1,    0.1,  999.0,  999.0,  999.0,  999.0,    0.0,    0.1,  999.0,  999.0,    0.3,  999.0,  999.0,  999.0,  999.0,  999.0,  999.0,  999.0,  999.0
2013/05/08 20:20,  999.0,   -0.1,   -1.0,  999.0,  999.0,    0.1,   -0.3,    0.3,    0.1,    0.0,   -0.3,   -0.2,   -0.1,   -0.3,   -0.3,    0.7,    0.6,    1.1,   -0.4,    1.3,   -0.1,   -0.1,   -0.2,    0.5,  999.0,  999.0,  999.0,    0.0,    0.1,    0.1,    0.1,    0.1,    0.1,    0.0,   -0.4,   -0.1,    0.0,  999.0,    0.1,  999.0,   -0.3,  999.0,    0.3,   -0.1,    0.3,    0.1,    0.3,    0.4,    0.2,  999.0,  999.0,    0.2,    0.1,   -0.2,  999.0,    0.1,    0.1,  999.0,  999.0,  999.0,   -0.2,  999.0,  999.0,  999.0,  999.0,  999.0,    0.2,   -0.2,  999.0,    0.3,   -0.0,   -0.2,  999.0,  999.0,  999.0,  999.0,  999.0,  999.0,  999.0,  999.0
2013/05/08 20:30,  999.0,  999.0,  999.0,  999.0,  999.0,  999.0,  999.0,    1.5,  999.0,  999.0,    0.1,    0.5,   -0.2,    3.5,    6.1,    6.2,    6.2,    7.8,    8.0,    9.3,   12.7,   11.8,   11.7,  999.0,  999.0,  999.0,  999.0,  999.0,  999.0,  999.0,    8.7,   13.5,   15.3,  999.0,  999.0,    0.3,    0.2,    0.1,  999.0,  999.0,  999.0,  999.0,  999.0,  999.0,  999.0,    0.4,  999.0,    0.3,    0.4,   -0.4,  999.0,  999.0,  999.0,  999.0,  999.0,   -0.0,  999.0,  999.0,  999.0,  999.0,  999.0,  999.0,  999.0,   -0.0,  999.0,  999.0,  999.0,  999.0,  999.0,  999.0,  999.0,  999.0,  999.0,  999.0,  999.0,  999.0,  999.0,  999.0,  999.0,  999.0
2013/05/08 20:40,  999.0,    0.1,    0.1,   -0.0,    0.5,    0.6,  999.0,    0.5,    0.3,    0.5,    0.1,   -0.0,   -0.3,   -0.6,   -0.4,    7.0,    6.1,    9.8,   15.0,   12.7,    9.0,   12.5,   10.9,  999.0,  999.0,    9.1,   10.0,  999.0,    5.1,    6.2,    7.4,   10.8,   14.7,   17.1,   -0.7,   -0.3,    0.2,    0.1,  999.0,  999.0,    0.2,  999.0,  999.0,  999.0,  999.0,  999.0,    0.3,    0.0,    0.2,  999.0,  999.0,  999.0,  999.0,  999.0,  999.0,  999.0,    0.1,  999.0,   -0.1,  999.0,  999.0,  999.0,  999.0,  999.0,  999.0,    0.1,    0.0,  999.0,  999.0,  999.0,  999.0,  999.0,  999.0,  999.0,   -0.1,  999.0,  999.0,  999.0,  999.0,  999.0
2013/05/08 20:50,  999.0,    0.5,    0.5,  999.0,    0.6,  999.0,  999.0,    0.0,   -0.1,   -0.1,    0.1,   -0.2,    0.1,    3.1,    5.1,    6.5,    5.5,    6.7,    5.4,    3.7,   13.4,   12.0,  999.0,   11.5,    9.9,    9.9,   10.1,  999.0,   11.7,    8.4,   12.9,   14.2,   16.6,   17.2,  999.0,  999.0,  999.0,  999.0,  999.0,  999.0,  999.0,  999.0,  999.0,  999.0,  999.0,  999.0,  999.0,  999.0,  999.0,  999.0,  999.0,  999.0,  999.0,  999.0,    0.1,  999.0,  999.0,  999.0,  999.0,  999.0,  999.0,  999.0,  999.0,  999.0,  999.0,  999.0,  999.0,  999.0,  999.0,  999.0,    0.2,  999.0,  999.0,  999.0,  999.0,  999.0,  999.0,  999.0,  999.0,  999.0
2013/05/08 21:00,  999.0,    0.1,   -0.3,   -0.2,   -0.2,   -0.3,   -0.1,    0.3,    0.0,    0.0,   -0.0,   -0.1,   -0.2,   -0.5,   -0.5,   -0.7,   -0.6,   -0.7,   -0.6,   -0.1,   -0.1,   -0.3,   -0.4,  999.0,   -0.3,   -0.0,  999.0,   -0.4,   -0.6,   -1.3,   -0.7,   -0.3,   -0.1,  999.0,   -0.1,   -0.1,    0.1,   -0.3,   -0.1,   -0.2,   -0.0,  999.0,   -0.0,   -0.3,    0.2,    0.1,    0.2,    0.4,   -0.0,    0.1,  999.0,  999.0,   -0.2,    0.0,  999.0,   -0.2,   -0.0,    0.2,    0.2,  999.0,   -0.0,  999.0,  999.0,  999.0,   -0.2,   -0.0,  999.0,   -0.1,  999.0,  999.0,    0.2,   -0.1,   -0.3,    0.2,    0.3,  999.0,  999.0,  999.0,  999.0,  999.0
2013/05/08 21:10,  999.0,  999.0,    0.1,   -0.3,   -0.6,  999.0,   -0.1,   -0.2,   -0.1,   -0.0,   -0.1,   -0.0,   -0.3,   -0.4,   -0.4,    1.0,    1.1,   -0.3,   -0.2,    0.0,   -0.2,   -0.0,    0.0,   -0.1,    0.3,   -0.1,   -0.3,    0.0,   -0.2,    2.3,    2.6,   -0.4,   -0.2,   -0.0,    0.3,   -0.1,    0.1,   -0.2,    0.2,   -0.1,    0.2,   -0.1,   -0.1,    0.3,   -0.3,   -0.2,    0.0,    0.1,    0.1,   -0.1,    0.0,    0.2,   -0.0,   -0.3,   -0.1,    0.2,    0.0,    0.5,  999.0,  999.0,  999.0,  999.0,  999.0,  999.0,    0.0,  999.0,    0.4,    0.1,   -0.1,   -0.0,    0.0,  999.0,    0.3,    0.3,  999.0,  999.0,  999.0,  999.0,  999.0,  999.0
2013/05/08 21:20,  999.0,    0.0,    0.1,  999.0,   -0.4,   -0.8,   -0.6,   -0.0,    0.2,   -0.1,   -0.4,   -0.4,   -0.2,    0.0,  999.0,   10.1,   13.8,    9.2,    9.6,  999.0,  999.0,   12.6,  999.0,  999.0,  999.0,  999.0,  999.0,  999.0,  999.0,  999.0,    7.0,   -0.5,   -0.0,  999.0,   -0.4,   -0.0,    0.2,    0.2,    0.0,   -0.1,  999.0,  999.0,   -0.3,   -0.0,    0.2,   -0.1,    0.0,    0.2,    0.2,  999.0,    0.5,  999.0,    0.1,   -0.2,   -0.2,  999.0,   -0.2,  999.0,  999.0,  999.0,  999.0,  999.0,   -0.1,    0.1,    0.0,  999.0,  999.0,    0.1,  999.0,  999.0,   -0.2,  999.0,   -0.2,  999.0,  999.0,  999.0,  999.0,  999.0,  999.0,  999.0
2013/05/08 21:30,  999.0,   -0.0,    0.2,    0.6,    0.6,    0.5,   -0.0,   -0.3,   -0.3,   -0.0,   -0.0,    0.1,   -0.2,    1.3,   -0.1,    1.1,   -0.5,    3.0,    0.7,   -0.1,    1.4,    2.8,    2.3,   -0.2,   -0.3,    0.3,   -0.2,   -0.6,    2.3,   -1.1,    2.8,    2.2,    0.4,  999.0,    0.1,    0.1,   -0.4,   -0.2,   -0.0,    0.4,   -0.0,   -0.2,    0.1,   -0.1,   -0.3,    0.1,    0.1,    0.2,    0.2,  999.0,    0.1,   -0.2,   -0.1,   -0.3,   -0.0,    0.2,    0.2,   -0.4,   -0.6,   -0.2,   -0.1,   -0.1,  999.0,    0.1,   -0.2,   -0.0,    0.4,  999.0,    0.1,  999.0,   -0.1,   -0.2,   -0.2,  999.0,  999.0,  999.0,  999.0,  999.0,  999.0,  999.0
2013/05/08 21:40,  999.0,  999.0,    0.0,    0.1,  999.0,  999.0,  999.0,   -0.1,   -0.3,   -0.1,    2.2,   -0.0,   -0.1,    6.8,    3.1,    5.9,    4.9,   -1.6,   -1.3,   -0.1,    3.2,    0.1,    0.0,    2.6,    0.3,    0.0,    3.5,    4.6,    0.3,    0.0,    0.3,    0.0,    0.1,  999.0,    0.1,  999.0,  999.0,  999.0,  999.0,  999.0,    0.0,  999.0,  999.0,   -0.0,   -0.3,   -0.2,  999.0,   -0.1,    0.1,    0.1,   -0.1,   -0.6,   -0.2,    0.0,   -0.1,   -0.1,    0.0,  999.0,   -0.2,   -0.1,  999.0,   -0.6,    0.0,   -0.3,   -0.3,  999.0,  999.0,    0.1,  999.0,   -0.0,   -0.1,   -0.2,    0.0,   -0.2,  999.0,  999.0,  999.0,  999.0,  999.0,  999.0
2013/05/08 21:50,  999.0,    0.4,  999.0,  999.0,    1.8,  999.0,    3.3,  999.0,  999.0,   10.3,   13.0,   14.2,   13.3,   12.8,   13.0,   12.8,  999.0,   14.5,   12.9,   13.7,   13.2,   12.2,   11.4,   11.5,   11.6,   11.5,   11.4,   12.4,  999.0,  999.0,  999.0,   -0.0,    0.1,   -0.0,    0.3,  999.0,    0.1,    0.2,    0.1,    0.2,   -0.3,   -0.0,  999.0,    0.2,    0.3,   -0.2,   -0.0,    0.2,   -0.1,    0.2,   -0.1,   -0.5,   -0.0,    0.2,    0.0,   -0.1,   -0.0,    0.1,    0.1,   -0.3,   -0.5,    0.4,    0.0,   -0.1,    0.3,    0.0,  999.0,  999.0,  999.0,  999.0,  999.0,  999.0,  999.0,  999.0,  999.0,  999.0,  999.0,  999.0,  999.0,  999.0
2013/05/08 22:00,  999.0,    0.4,    1.3,    2.6,    2.7,  999.0,  999.0,  999.0,    8.1,   10.3,   11.6,   12.7,   13.8,   12.9,   12.0,   11.3,   11.5,   12.7,   10.6,    8.7,  999.0,  999.0,  999.0,  999.0,  999.0,  999.0,  999.0,  999.0,    0.3,    0.1,   -0.2,   -0.0,   -0.1,    0.1,    0.1,   -0.2,  999.0,    0.4,    0.0,    0.2,   -0.2,   -0.2,   -0.0,  999.0,   -0.2,    0.1,    0.1,    0.2,   -0.3,  999.0,    0.0,  999.0,    0.3,    0.1,    0.6,   -0.1,    0.0,    0.1,   -0.0,    0.3,   -0.1,    0.0,    0.2,    0.2,    0.2,    0.0,  999.0,  999.0,  999.0,  999.0,  999.0,  999.0,  999.0,  999.0,  999.0,  999.0,  999.0,  999.0,  999.0,  999.0
2013/05/08 22:10,  999.0,    0.1,    0.6,    0.2,    1.3,  999.0,  999.0,  999.0,    9.3,   12.6,   14.0,   14.7,   15.4,   15.5,   16.0,   13.9,   13.8,   14.4,   12.7,   14.4,  999.0,  999.0,  999.0,  999.0,  999.0,  999.0,  999.0,    0.7,    0.9,    0.3,   -0.0,   -0.1,   -0.0,    0.0,  999.0,   -0.2,   -0.0,  999.0,    0.1,   -0.0,  999.0,   -0.6,   -0.6,   -0.2,    0.0,  999.0,   -0.2,    0.1,   -0.2,  999.0,    0.1,    0.1,    0.2,    0.3,    0.0,   -0.2,    0.1,    0.0,    0.1,   -0.1,   -0.0,    0.2,   -0.0,    0.0,   -0.1,    0.2,  999.0,  999.0,  999.0,  999.0,  999.0,  999.0,  999.0,  999.0,  999.0,  999.0,  999.0,  999.0,  999.0,  999.0
2013/05/08 22:20,  999.0,    0.1,   -0.6,    0.7,    0.5,  999.0,  999.0,  999.0,  999.0,  999.0,   14.0,   14.8,   15.0,   16.2,   16.1,   14.4,   13.9,   13.9,   13.2,   14.8,   12.0,    7.8,    8.6,    9.3,   11.5,  999.0,  999.0,  999.0,  999.0,    0.8,    0.2,    0.1,    0.0,    0.2,    0.1,   -0.3,  999.0,   -0.2,  999.0,   -0.2,   -0.0,  999.0,    0.1,   -0.4,   -0.2,    0.1,   -0.0,    0.2,    0.1,  999.0,   -0.1,    0.2,    0.1,    0.1,    0.0,   -0.1,    0.1,    0.2,   -0.0,    0.2,    0.1,   -0.1,   -0.1,    0.2,    0.2,    0.3,   -0.3,  999.0,  999.0,  999.0,  999.0,  999.0,  999.0,  999.0,  999.0,  999.0,  999.0,  999.0,  999.0,  999.0
2013/05/08 22:30,  999.0,   -0.0,   -0.2,   -0.0,    2.2,  999.0,  999.0,  999.0,  999.0,   12.1,   13.6,   13.9,   14.4,   15.1,   14.6,   13.6,   13.7,   11.6,    8.7,    6.3,    2.6,    2.2,    1.7,  999.0,  999.0,  999.0,  999.0,  999.0,  999.0,  999.0,  999.0,  999.0,  999.0,  999.0,  999.0,    0.1,    0.1,    0.0,  999.0,    0.1,    0.0,    0.1,   -0.1,   -0.1,    0.0,    0.0,    0.1,   -0.1,    0.2,    0.3,   -0.1,   -0.2,  999.0,    0.3,    0.2,    0.0,   -0.2,   -0.1,   -0.1,    0.1,    0.0,    0.2,   -0.2,   -0.3,   -0.1,    0.2,  999.0,  999.0,  999.0,  999.0,  999.0,  999.0,  999.0,  999.0,  999.0,  999.0,  999.0,  999.0,  999.0,  999.0
2013/05/08 22:40,  999.0,   -0.5,    0.0,    0.6,    1.6,  999.0,  999.0,  999.0,  999.0,   12.1,   12.3,   12.6,   14.3,   14.8,   14.3,   15.1,   15.2,   13.2,   11.0,    7.6,  999.0,    6.9,    6.7,  999.0,    7.1,    6.9,  999.0,  999.0,  999.0,  999.0,    0.2,    0.1,   -0.1,    0.2,  999.0,   -0.8,  999.0,   -0.0,  999.0,    0.2,   -0.1,   -0.3,    0.1,    0.0,    0.0,    0.0,    0.1,   -0.1,   -0.1,   -0.1,   -0.1,    0.1,    0.1,    0.3,   -0.0,   -0.3,   -0.2,  999.0,   -0.0,   -0.2,    0.1,   -0.1,    0.2,    0.3,    0.2,   -0.0,  999.0,  999.0,  999.0,  999.0,  999.0,  999.0,  999.0,  999.0,  999.0,  999.0,  999.0,  999.0,  999.0,  999.0
2013/05/08 22:50,  999.0,    0.0,    0.7,    0.6,  999.0,  999.0,    1.7,  999.0,    7.9,   10.9,   13.0,   13.2,   13.2,   14.0,   14.3,   15.1,   14.2,   14.4,   12.8,   11.7,   10.7,   10.7,   10.1,  999.0,  999.0,    6.8,    7.2,  999.0,  999.0,  999.0,  999.0,  999.0,  999.0,  999.0,  999.0,  999.0,   -0.2,   -0.2,   -0.4,   -0.3,   -0.3,   -0.3,  999.0,   -0.1,    0.0,    0.0,   -0.1,   -0.0,   -0.2,    0.1,   -0.3,    0.2,    0.2,   -0.0,    0.2,    0.1,   -0.0,   -0.2,    0.0,    0.3,    0.1,  999.0,  999.0,    0.3,    0.6,  999.0,  999.0,  999.0,  999.0,  999.0,  999.0,  999.0,  999.0,  999.0,  999.0,  999.0,  999.0,  999.0,  999.0,  999.0
2013/05/08 23:00,  999.0,   -0.1,   -1.4,    0.5,    1.2,  999.0,    4.6,    7.7,   11.0,   13.3,   14.1,   13.2,   13.9,   14.6,   15.1,   15.8,   14.9,   14.2,  999.0,  999.0,  999.0,  999.0,    1.3,    0.8,    0.8,  999.0,    2.9,    2.5,  999.0,  999.0,  999.0,   -0.1,    0.2,    0.3,  999.0,   -0.9,  999.0,  999.0,   -0.2,  999.0,   -0.7,  999.0,   -0.0,    0.1,    0.1,    0.2,   -0.0,    0.1,    0.1,    0.2,   -0.0,  999.0,  999.0,    0.4,    0.1,   -0.0,    0.2,  999.0,   -0.1,    0.2,    0.4,  999.0,    0.3,  999.0,  999.0,    0.2,  999.0,  999.0,  999.0,  999.0,  999.0,  999.0,  999.0,  999.0,  999.0,  999.0,  999.0,  999.0,  999.0,  999.0
2013/05/08 23:10,  999.0,   -0.0,  999.0,  999.0,  999.0,  999.0,  999.0,  999.0,   12.0,   13.7,   14.3,   13.6,   14.0,   15.3,   14.9,   15.5,   15.0,  999.0,  999.0,  999.0,    3.4,    1.4,    1.4,    1.8,  999.0,  999.0,    2.8,    2.9,    4.0,    4.6,  999.0,  999.0,  999.0,  999.0,  999.0,  999.0,   -0.4,  999.0,  999.0,  999.0,   -0.1,  999.0,  999.0,    0.1,    0.1,   -0.1,   -0.0,    0.1,    0.1,    0.2,    0.2,    0.5,    0.6,   -0.1,   -0.3,   -0.3,   -0.1,   -0.1,   -0.0,    0.0,   -0.0,   -0.3,    0.0,   -0.2,   -0.0,  999.0,  999.0,  999.0,  999.0,  999.0,  999.0,  999.0,  999.0,  999.0,  999.0,  999.0,  999.0,  999.0,  999.0,  999.0
2013/05/08 23:20,  999.0,   -0.0,   -0.4,  999.0,  999.0,  999.0,  999.0,    8.4,   10.0,   11.9,   13.9,   13.6,   13.2,   15.2,   14.4,   14.6,   13.5,   13.2,  999.0,  999.0,    0.9,    0.3,    0.2,    0.0,  999.0,  999.0,    2.5,    3.4,    3.9,  999.0,  999.0,  999.0,  999.0,  999.0,  999.0,    0.3,    0.1,   -0.2,  999.0,    0.1,   -0.3,   -0.4,   -0.1,    0.0,   -0.4,   -0.1,   -0.1,   -0.1,   -0.5,   -0.3,  999.0,  999.0,    0.2,    0.2,    0.1,   -0.1,    0.2,    0.2,   -0.2,   -0.1,   -0.1,   -0.0,   -0.0,   -0.1,   -0.0,    0.4,  999.0,  999.0,  999.0,  999.0,  999.0,  999.0,  999.0,  999.0,  999.0,  999.0,  999.0,  999.0,  999.0,  999.0
2013/05/08 23:30,  999.0,    0.3,   -0.1,   -0.7,    0.4,  999.0,  999.0,  999.0,    9.4,   12.0,   12.8,   13.5,   13.9,   13.5,   14.0,   14.0,   14.1,   13.6,  999.0,    5.4,    4.8,    3.0,    3.6,    5.9,  999.0,    9.5,   10.7,   10.7,  999.0,  999.0,  999.0,  999.0,  999.0,  999.0,   -0.1,   -0.2,    0.1,  999.0,   -0.1,   -0.1,   -0.2,    0.3,   -0.1,   -0.1,   -0.1,   -0.2,   -0.0,    0.0,   -0.1,    0.4,   -0.2,    0.1,    0.1,    0.2,    0.0,   -0.0,   -0.3,    0.2,    0.1,    0.1,    0.2,   -0.2,    0.1,    0.5,    0.4,   -0.0,  999.0,  999.0,  999.0,  999.0,  999.0,  999.0,  999.0,  999.0,  999.0,  999.0,  999.0,  999.0,  999.0,  999.0
2013/05/08 23:40,  999.0,    0.0,   -0.6,  999.0,   -0.0,  999.0,  999.0,  999.0,  999.0,  999.0,   11.8,   10.8,   12.6,   13.1,   13.2,   12.9,   13.2,   10.6,  999.0,  999.0,  999.0,  999.0,  999.0,  999.0,    0.2,  999.0,    2.5,  999.0,  999.0,  999.0,  999.0,  999.0,    0.1,  999.0,   -0.0,  999.0,   -0.1,   -0.1,  999.0,    0.1,   -0.3,   -0.4,    0.0,    0.0,    0.1,    0.3,    0.1,   -0.1,    0.0,  999.0,   -0.1,   -0.1,   -0.1,   -0.1,   -0.1,    0.0,   -0.0,    0.3,   -0.1,    0.5,    0.4,   -0.0,   -0.3,   -0.5,   -0.3,  999.0,  999.0,  999.0,  999.0,  999.0,  999.0,  999.0,  999.0,  999.0,  999.0,  999.0,  999.0,  999.0,  999.0,  999.0
2013/05/08 23:50,  999.0,   -1.0,    0.8,  999.0,  999.0,    1.0,   -0.1,  999.0,  999.0,  999.0,   10.5,   10.4,   11.0,   12.2,   12.1,   11.9,   11.9,  999.0,  999.0,    9.2,    9.4,    9.8,    9.3,  999.0,  999.0,  999.0,  999.0,  999.0,  999.0,  999.0,  999.0,   -0.3,    0.2,    0.2,    0.4,  999.0,    0.1,    0.1,   -0.0,    0.3,   -0.3,   -0.0,   -0.0,   -0.1,    0.1,    0.1,   -0.0,    0.1,    0.0,   -0.1,  999.0,  999.0,   -0.1,   -0.2,    0.0,   -0.0,   -0.1,   -0.2,   -0.6,   -0.2,   -0.0,   -0.0,    0.3,    0.1,  999.0,    0.2,  999.0,  999.0,  999.0,  999.0,  999.0,  999.0,  999.0,  999.0,  999.0,  999.0,  999.0,  999.0,  999.0,  999.0
